Time,TemperatureF,DewpointF,PressureIn,WindDirection,WindDirectionDegrees,WindSpeedMPH,WindSpeedGustMPH,Humidity,HourlyPrecipIn,Conditions,Clouds,dailyrainin,SoftwareType,DateUTC
2013-06-01 00:00:00,64.7,63.2,29.81,South,186,0.0,4.0,95,0.18,,,0.94,VWS V14.01,2013-06-01 05:00:00,
2013-06-01 00:02:00,64.7,63.2,29.81,South,190,2.0,4.0,95,0.10,,OVC110,0.00,VWS V14.01,2013-06-01 05:02:00,
2013-06-01 00:03:00,64.7,63.2,29.81,South,190,0.0,4.0,95,0.10,,OVC110,0.00,VWS V14.01,2013-06-01 05:03:00,
2013-06-01 00:07:00,64.7,63.2,29.81,SSW,194,0.0,4.0,95,0.11,,OVC110,0.01,VWS V14.01,2013-06-01 05:07:00,
2013-06-01 00:08:00,64.7,63.2,29.81,SSW,194,0.0,4.0,95,0.11,,OVC110,0.01,VWS V14.01,2013-06-01 05:08:00,
2013-06-01 00:12:00,64.7,63.2,29.81,SSW,212,0.0,4.0,95,0.12,,OVC110,0.02,VWS V14.01,2013-06-01 05:12:00,
2013-06-01 00:13:00,64.7,63.2,29.81,SSW,212,0.0,4.0,95,0.12,,OVC110,0.02,VWS V14.01,2013-06-01 05:13:00,
2013-06-01 00:17:00,64.7,63.2,29.80,SSW,196,0.0,4.0,95,0.12,,OVC110,0.02,VWS V14.01,2013-06-01 05:17:00,
2013-06-01 00:18:00,64.7,63.2,29.80,SSW,192,0.0,4.0,95,0.12,,OVC110,0.02,VWS V14.01,2013-06-01 05:18:00,
2013-06-01 00:22:00,64.7,63.2,29.80,SSW,192,0.0,4.0,95,0.12,,OVC110,0.02,VWS V14.01,2013-06-01 05:22:00,
2013-06-01 00:23:00,64.7,63.2,29.80,SSW,192,0.0,4.0,95,0.12,,OVC110,0.02,VWS V14.01,2013-06-01 05:23:00,
2013-06-01 00:27:00,64.7,63.2,29.80,SSW,192,0.0,4.0,95,0.13,,OVC110,0.03,VWS V14.01,2013-06-01 05:27:00,
2013-06-01 00:28:00,64.7,63.2,29.80,SSW,192,0.0,4.0,95,0.13,,OVC110,0.03,VWS V14.01,2013-06-01 05:28:00,
2013-06-01 00:29:00,64.7,63.2,29.80,SSW,192,0.0,4.0,95,0.13,,OVC110,0.03,VWS V14.01,2013-06-01 05:29:00,
2013-06-01 00:30:00,64.7,63.2,29.80,SSW,192,0.0,4.0,95,0.14,,,0.04,VWS V14.01,2013-06-01 05:30:00,
2013-06-01 00:33:00,64.7,63.2,29.80,SSW,192,0.0,0.0,95,0.09,,OVC110,0.04,VWS V14.01,2013-06-01 05:33:00,
2013-06-01 00:34:00,64.7,63.2,29.80,SSW,192,0.0,0.0,95,0.09,,OVC110,0.04,VWS V14.01,2013-06-01 05:34:00,
2013-06-01 00:38:00,64.7,63.2,29.80,SSW,192,0.0,1.0,95,0.10,,OVC110,0.05,VWS V14.01,2013-06-01 05:38:00,
2013-06-01 00:39:00,64.7,63.2,29.80,SSW,192,0.0,1.0,95,0.10,,OVC110,0.05,VWS V14.01,2013-06-01 05:39:00,
2013-06-01 00:43:00,64.7,63.2,29.80,SSW,192,0.0,1.0,95,0.11,,OVC110,0.06,VWS V14.01,2013-06-01 05:43:00,
2013-06-01 00:44:00,64.7,63.2,29.80,SSW,192,0.0,1.0,95,0.12,,OVC110,0.07,VWS V14.01,2013-06-01 05:44:00,
2013-06-01 00:48:00,64.7,63.2,29.79,SSW,192,0.0,1.0,95,0.12,,OVC110,0.07,VWS V14.01,2013-06-01 05:48:00,
2013-06-01 00:49:00,64.7,63.2,29.79,SSW,192,0.0,1.0,95,0.12,,OVC110,0.07,VWS V14.01,2013-06-01 05:49:00,
2013-06-01 00:53:00,64.7,63.2,29.79,SSW,192,0.0,1.0,95,0.13,,OVC110,0.08,VWS V14.01,2013-06-01 05:53:00,
2013-06-01 00:54:00,64.7,63.2,29.79,SSW,192,0.0,1.0,95,0.13,,OVC110,0.08,VWS V14.01,2013-06-01 05:54:00,
2013-06-01 00:58:00,64.9,63.4,29.79,SSW,192,0.0,1.0,95,0.15,,OVC110,0.10,VWS V14.01,2013-06-01 05:58:00,
2013-06-01 00:59:00,64.9,63.4,29.79,SSW,193,0.0,1.0,95,0.15,,OVC110,0.10,VWS V14.01,2013-06-01 05:59:00,
2013-06-01 01:00:00,64.7,63.2,29.81,SSW,192,0.0,1.0,95,0.15,,,0.10,VWS V14.01,2013-06-01 06:00:00,
2013-06-01 01:03:00,64.7,63.2,29.81,South,191,0.0,0.0,95,0.11,,OVC080,0.11,VWS V14.01,2013-06-01 06:03:00,
2013-06-01 01:04:00,64.7,63.2,29.81,South,191,0.0,0.0,95,0.11,,OVC080,0.11,VWS V14.01,2013-06-01 06:04:00,
2013-06-01 01:05:00,64.7,63.2,29.81,South,191,0.0,0.0,95,0.12,,OVC080,0.12,VWS V14.01,2013-06-01 06:05:00,
2013-06-01 01:09:00,64.7,63.2,29.81,South,191,0.0,0.0,95,0.13,,OVC080,0.13,VWS V14.01,2013-06-01 06:09:00,
2013-06-01 01:10:00,64.7,63.2,29.81,South,191,0.0,0.0,95,0.13,,OVC080,0.13,VWS V14.01,2013-06-01 06:10:00,
2013-06-01 01:14:00,64.7,63.2,29.81,South,191,0.0,0.0,95,0.14,,OVC080,0.14,VWS V14.01,2013-06-01 06:14:00,
2013-06-01 01:15:00,64.7,63.2,29.80,South,191,0.0,0.0,95,0.15,,OVC080,0.15,VWS V14.01,2013-06-01 06:15:00,
2013-06-01 01:19:00,64.7,63.2,29.80,South,191,0.0,0.0,95,0.15,,OVC080,0.15,VWS V14.01,2013-06-01 06:19:00,
2013-06-01 01:20:00,64.7,63.2,29.80,South,191,0.0,0.0,95,0.15,,OVC080,0.15,VWS V14.01,2013-06-01 06:20:00,
2013-06-01 01:24:00,64.7,63.2,29.80,South,187,0.0,3.0,95,0.16,,OVC080,0.16,VWS V14.01,2013-06-01 06:24:00,
2013-06-01 01:25:00,64.7,63.2,29.80,South,187,0.0,3.0,95,0.16,,OVC080,0.16,VWS V14.01,2013-06-01 06:25:00,
2013-06-01 01:26:00,64.7,63.2,29.80,South,187,0.0,3.0,95,0.16,,OVC080,0.16,VWS V14.01,2013-06-01 06:26:00,
2013-06-01 01:29:00,64.7,63.2,29.80,South,187,0.0,3.0,95,0.17,,OVC080,0.17,VWS V14.01,2013-06-01 06:29:00,
2013-06-01 01:30:00,64.7,63.2,29.80,South,187,0.0,3.0,95,0.17,,OVC080,0.17,VWS V14.01,2013-06-01 06:30:00,
2013-06-01 01:31:00,64.6,63.1,29.80,South,187,0.0,0.0,95,0.13,,OVC080,0.17,VWS V14.01,2013-06-01 06:31:00,
2013-06-01 01:34:00,64.6,63.1,29.80,South,187,0.0,0.0,95,0.13,,OVC080,0.17,VWS V14.01,2013-06-01 06:34:00,
2013-06-01 01:35:00,64.6,63.1,29.80,South,187,0.0,0.0,95,0.14,,OVC080,0.18,VWS V14.01,2013-06-01 06:35:00,
2013-06-01 01:36:00,64.6,63.1,29.80,South,187,0.0,0.0,95,0.14,,OVC080,0.18,VWS V14.01,2013-06-01 06:36:00,
2013-06-01 01:40:00,64.6,63.1,29.80,South,187,0.0,0.0,95,0.14,,OVC080,0.18,VWS V14.01,2013-06-01 06:40:00,
2013-06-01 01:41:00,64.6,63.1,29.80,South,187,0.0,0.0,95,0.14,,OVC080,0.18,VWS V14.01,2013-06-01 06:41:00,
2013-06-01 01:45:00,64.6,63.1,29.80,South,188,0.0,0.0,95,0.15,,OVC080,0.19,VWS V14.01,2013-06-01 06:45:00,
2013-06-01 01:46:00,64.6,63.1,29.80,South,188,0.0,0.0,95,0.16,,OVC080,0.20,VWS V14.01,2013-06-01 06:46:00,
2013-06-01 01:50:00,64.6,63.1,29.80,South,186,0.0,0.0,95,0.17,,OVC080,0.21,VWS V14.01,2013-06-01 06:50:00,
2013-06-01 01:51:00,64.6,63.1,29.80,South,186,0.0,0.0,95,0.17,,OVC080,0.21,VWS V14.01,2013-06-01 06:51:00,
2013-06-01 01:55:00,64.6,63.1,29.80,South,187,0.0,3.0,95,0.19,,OVC080,0.23,VWS V14.01,2013-06-01 06:55:00,
2013-06-01 01:56:00,64.6,63.1,29.80,South,187,0.0,3.0,95,0.19,,OVC080,0.23,VWS V14.01,2013-06-01 06:56:00,
2013-06-01 02:00:00,64.6,63.1,29.78,South,186,0.0,5.0,95,0.20,,OVC080,0.24,VWS V14.01,2013-06-01 07:00:00,
2013-06-01 02:01:00,64.4,62.9,29.78,South,186,0.0,0.0,95,0.14,,OVC110,0.24,VWS V14.01,2013-06-01 07:01:00,
2013-06-01 02:05:00,64.4,62.9,29.78,South,180,0.0,0.0,95,0.15,,OVC110,0.25,VWS V14.01,2013-06-01 07:05:00,
2013-06-01 02:06:00,64.6,63.1,29.78,South,180,0.0,0.0,95,0.15,,OVC110,0.25,VWS V14.01,2013-06-01 07:06:00,
2013-06-01 02:07:00,64.4,62.9,29.78,South,180,0.0,0.0,95,0.16,,OVC110,0.26,VWS V14.01,2013-06-01 07:07:00,
2013-06-01 02:10:00,64.4,62.9,29.78,SE,125,0.0,1.0,95,0.17,,OVC110,0.27,VWS V14.01,2013-06-01 07:10:00,
2013-06-01 02:11:00,64.4,63.2,29.78,South,171,0.0,1.0,96,0.17,,OVC110,0.27,VWS V14.01,2013-06-01 07:11:00,
2013-06-01 02:12:00,64.4,62.9,29.78,South,171,0.0,1.0,95,0.17,,OVC110,0.27,VWS V14.01,2013-06-01 07:12:00,
2013-06-01 02:16:00,64.2,62.7,29.73,SSE,150,0.0,1.0,95,0.17,,OVC110,0.27,VWS V14.01,2013-06-01 07:16:00,
2013-06-01 02:17:00,64.2,62.7,29.73,SSE,150,0.0,1.0,95,0.17,,OVC110,0.27,VWS V14.01,2013-06-01 07:17:00,
2013-06-01 02:21:00,64.2,62.7,29.73,ESE,104,0.0,3.0,95,0.18,,OVC110,0.28,VWS V14.01,2013-06-01 07:21:00,
2013-06-01 02:22:00,64.2,62.7,29.73,SE,126,0.0,3.0,95,0.18,,OVC110,0.28,VWS V14.01,2013-06-01 07:22:00,
2013-06-01 02:26:00,64.2,62.7,29.73,ESE,122,3.0,5.0,95,0.20,,OVC110,0.30,VWS V14.01,2013-06-01 07:26:00,
2013-06-01 02:27:00,64.1,62.6,29.73,SE,128,4.0,5.0,95,0.20,,OVC110,0.30,VWS V14.01,2013-06-01 07:27:00,
2013-06-01 02:28:00,64.1,62.6,29.73,East,96,0.0,5.0,95,0.20,,OVC110,0.30,VWS V14.01,2013-06-01 07:28:00,
2013-06-01 02:30:00,64.1,62.6,29.64,SSE,167,2.0,5.0,95,0.21,,,0.31,VWS V14.01,2013-06-01 07:30:00,
2013-06-01 02:31:00,64.1,62.6,29.64,SSE,153,3.0,3.0,95,0.14,,OVC110,0.31,VWS V14.01,2013-06-01 07:31:00,
2013-06-01 02:32:00,63.9,62.4,29.64,SSE,167,0.0,3.0,95,0.14,,OVC110,0.31,VWS V14.01,2013-06-01 07:32:00,
2013-06-01 02:33:00,63.9,62.4,29.64,SSE,157,1.0,7.0,95,0.14,,OVC110,0.31,VWS V14.01,2013-06-01 07:33:00,
2013-06-01 02:36:00,63.6,62.2,29.64,South,177,0.0,7.0,95,0.14,,OVC110,0.31,VWS V14.01,2013-06-01 07:36:00,
2013-06-01 02:37:00,63.6,62.2,29.64,SSW,202,1.0,7.0,95,0.14,,OVC110,0.31,VWS V14.01,2013-06-01 07:37:00,
2013-06-01 02:38:00,63.6,62.2,29.64,SSW,194,7.0,7.0,95,0.15,,OVC110,0.32,VWS V14.01,2013-06-01 07:38:00,
2013-06-01 02:41:00,63.6,62.2,29.64,South,184,0.0,7.0,95,0.15,,OVC110,0.32,VWS V14.01,2013-06-01 07:41:00,
2013-06-01 02:42:00,63.6,62.2,29.64,SE,140,1.0,7.0,95,0.15,,OVC110,0.32,VWS V14.01,2013-06-01 07:42:00,
2013-06-01 02:43:00,63.6,62.2,29.64,SSW,196,0.0,7.0,95,0.15,,OVC110,0.32,VWS V14.01,2013-06-01 07:43:00,
2013-06-01 02:46:00,63.6,62.2,29.67,SSE,166,0.0,7.0,95,0.15,,OVC110,0.32,VWS V14.01,2013-06-01 07:46:00,
2013-06-01 02:47:00,63.6,62.2,29.67,SW,216,0.0,7.0,95,0.15,,OVC110,0.32,VWS V14.01,2013-06-01 07:47:00,
2013-06-01 02:48:00,63.6,62.2,29.67,SSW,202,4.0,7.0,95,0.15,,OVC110,0.32,VWS V14.01,2013-06-01 07:48:00,
2013-06-01 02:49:00,63.6,62.2,29.67,SSE,163,4.0,10.0,95,0.15,,OVC110,0.32,VWS V14.01,2013-06-01 07:49:00,
2013-06-01 02:51:00,63.6,62.2,29.67,South,174,0.0,10.0,95,0.15,,OVC110,0.32,VWS V14.01,2013-06-01 07:51:00,
2013-06-01 02:52:00,63.6,62.2,29.67,SW,227,1.0,10.0,95,0.15,,OVC110,0.32,VWS V14.01,2013-06-01 07:52:00,
2013-06-01 02:53:00,63.6,62.2,29.67,SSW,200,3.0,10.0,95,0.15,,OVC110,0.32,VWS V14.01,2013-06-01 07:53:00,
2013-06-01 02:54:00,63.6,62.2,29.67,SSW,209,0.0,10.0,95,0.15,,OVC110,0.32,VWS V14.01,2013-06-01 07:54:00,
2013-06-01 02:56:00,63.6,62.2,29.67,ESE,113,2.0,10.0,95,0.15,,OVC110,0.32,VWS V14.01,2013-06-01 07:56:00,
2013-06-01 02:58:00,63.6,62.2,29.67,SSW,192,2.0,10.0,95,0.15,,OVC110,0.32,VWS V14.01,2013-06-01 07:58:00,
2013-06-01 03:00:00,63.6,62.2,29.69,South,177,3.0,10.0,95,0.15,,OVC110,0.32,VWS V14.01,2013-06-01 08:00:00,
2013-06-01 03:02:00,63.6,62.2,29.69,SSE,155,3.0,6.0,95,0.08,,-RA,0.32,VWS V14.01,2013-06-01 08:02:00,
2013-06-01 03:03:00,63.4,62.0,29.69,South,178,0.0,6.0,95,0.08,,-RA,0.32,VWS V14.01,2013-06-01 08:03:00,
2013-06-01 03:04:00,63.4,62.0,29.69,South,178,0.0,6.0,95,0.08,,-RA,0.32,VWS V14.01,2013-06-01 08:04:00,
2013-06-01 03:05:00,63.4,62.0,29.69,SSW,208,2.0,6.0,95,0.08,,-RA,0.32,VWS V14.01,2013-06-01 08:05:00,
2013-06-01 03:07:00,63.4,62.0,29.69,South,174,0.0,6.0,95,0.08,,-RA,0.32,VWS V14.01,2013-06-01 08:07:00,
2013-06-01 03:08:00,63.4,62.0,29.69,South,186,0.0,7.0,95,0.08,,-RA,0.32,VWS V14.01,2013-06-01 08:08:00,
2013-06-01 03:09:00,63.4,62.0,29.69,SSW,193,2.0,7.0,95,0.08,,-RA,0.32,VWS V14.01,2013-06-01 08:09:00,
2013-06-01 03:10:00,63.4,62.0,29.69,SSE,147,0.0,7.0,95,0.08,,-RA,0.32,VWS V14.01,2013-06-01 08:10:00,
2013-06-01 03:12:00,63.4,62.0,29.69,ESE,123,1.0,7.0,95,0.08,,-RA,0.32,VWS V14.01,2013-06-01 08:12:00,
2013-06-01 03:13:00,63.4,62.0,29.69,SSW,205,0.0,7.0,95,0.08,,-RA,0.32,VWS V14.01,2013-06-01 08:13:00,
2013-06-01 03:14:00,63.4,62.0,29.69,SE,146,0.0,7.0,95,0.08,,-RA,0.32,VWS V14.01,2013-06-01 08:14:00,
2013-06-01 03:15:00,63.4,62.0,29.67,SSE,157,0.0,7.0,95,0.08,,-RA,0.32,VWS V14.01,2013-06-01 08:15:00,
2013-06-01 03:17:00,63.4,62.0,29.67,SSE,157,0.0,7.0,95,0.08,,-RA,0.32,VWS V14.01,2013-06-01 08:17:00,
2013-06-01 03:18:00,63.4,62.0,29.67,SSE,161,0.0,7.0,95,0.08,,-RA,0.32,VWS V14.01,2013-06-01 08:18:00,
2013-06-01 03:19:00,63.4,62.0,29.67,SSE,161,0.0,7.0,95,0.08,,-RA,0.32,VWS V14.01,2013-06-01 08:19:00,
2013-06-01 03:20:00,63.4,62.0,29.67,SE,124,0.0,7.0,95,0.08,,-RA,0.32,VWS V14.01,2013-06-01 08:20:00,
2013-06-01 03:22:00,63.3,61.8,29.67,SSE,165,0.0,7.0,95,0.08,,-RA,0.32,VWS V14.01,2013-06-01 08:22:00,
2013-06-01 03:23:00,63.3,61.8,29.67,SSE,149,0.0,7.0,95,0.08,,-RA,0.32,VWS V14.01,2013-06-01 08:23:00,
2013-06-01 03:24:00,63.3,61.8,29.67,South,188,6.0,7.0,95,0.08,,-RA,0.32,VWS V14.01,2013-06-01 08:24:00,
2013-06-01 03:25:00,63.3,61.8,29.67,SSE,168,0.0,7.0,95,0.08,,-RA,0.32,VWS V14.01,2013-06-01 08:25:00,
2013-06-01 03:27:00,63.3,61.8,29.67,ESE,117,0.0,7.0,95,0.08,,-RA,0.32,VWS V14.01,2013-06-01 08:27:00,
2013-06-01 03:28:00,63.3,61.8,29.67,ESE,117,0.0,7.0,95,0.08,,-RA,0.32,VWS V14.01,2013-06-01 08:28:00,
2013-06-01 03:29:00,63.3,61.8,29.67,SE,146,0.0,7.0,95,0.08,,-RA,0.32,VWS V14.01,2013-06-01 08:29:00,
2013-06-01 03:30:00,63.3,61.8,29.65,SSE,149,0.0,7.0,95,0.08,,-RA,0.32,VWS V14.01,2013-06-01 08:30:00,
2013-06-01 03:32:00,63.3,61.8,29.65,SSW,201,0.0,4.0,95,0.01,,-RA,0.32,VWS V14.01,2013-06-01 08:32:00,
2013-06-01 03:34:00,63.3,61.8,29.65,SSW,201,0.0,4.0,95,0.01,,-RA,0.32,VWS V14.01,2013-06-01 08:34:00,
2013-06-01 03:35:00,63.3,61.8,29.65,ESE,123,0.0,5.0,95,0.01,,-RA,0.32,VWS V14.01,2013-06-01 08:35:00,
2013-06-01 03:37:00,63.3,61.8,29.65,SSE,168,0.0,6.0,95,0.01,,-RA,0.32,VWS V14.01,2013-06-01 08:37:00,
2013-06-01 03:39:00,63.3,61.8,29.65,SSE,157,0.0,6.0,95,0.01,,-RA,0.32,VWS V14.01,2013-06-01 08:39:00,
2013-06-01 03:40:00,63.3,61.8,29.65,SSE,165,0.0,6.0,95,0.01,,-RA,0.32,VWS V14.01,2013-06-01 08:40:00,
2013-06-01 03:42:00,63.3,61.8,29.65,South,169,0.0,6.0,95,0.01,,-RA,0.32,VWS V14.01,2013-06-01 08:42:00,
2013-06-01 03:44:00,63.3,61.8,29.65,SE,138,0.0,6.0,95,0.01,,-RA,0.32,VWS V14.01,2013-06-01 08:44:00,
2013-06-01 03:45:00,63.3,61.8,29.68,SE,139,0.0,6.0,95,0.01,,-RA,0.32,VWS V14.01,2013-06-01 08:45:00,
2013-06-01 03:47:00,63.3,61.8,29.68,SE,144,0.0,6.0,95,0.01,,-RA,0.32,VWS V14.01,2013-06-01 08:47:00,
2013-06-01 03:49:00,63.3,61.8,29.68,South,182,1.0,6.0,95,0.01,,-RA,0.32,VWS V14.01,2013-06-01 08:49:00,
2013-06-01 03:50:00,63.3,61.8,29.68,South,178,0.0,6.0,95,0.01,,-RA,0.32,VWS V14.01,2013-06-01 08:50:00,
2013-06-01 03:51:00,63.3,61.8,29.68,South,171,0.0,6.0,95,0.01,,-RA,0.32,VWS V14.01,2013-06-01 08:51:00,
2013-06-01 03:53:00,63.3,61.8,29.68,SSW,202,1.0,6.0,95,0.01,,-RA,0.32,VWS V14.01,2013-06-01 08:53:00,
2013-06-01 03:54:00,63.3,61.8,29.68,South,188,0.0,6.0,95,0.01,,-RA,0.32,VWS V14.01,2013-06-01 08:54:00,
2013-06-01 03:55:00,63.3,61.8,29.68,South,188,0.0,6.0,95,0.01,,-RA,0.32,VWS V14.01,2013-06-01 08:55:00,
2013-06-01 03:56:00,63.1,61.7,29.68,SE,144,0.0,6.0,95,0.01,,-RA,0.32,VWS V14.01,2013-06-01 08:56:00,
2013-06-01 03:58:00,63.1,61.7,29.68,SSE,155,0.0,6.0,95,0.01,,-RA,0.32,VWS V14.01,2013-06-01 08:58:00,
2013-06-01 03:59:00,63.1,61.7,29.68,SSE,155,0.0,6.0,95,0.01,,-RA,0.32,VWS V14.01,2013-06-01 08:59:00,
2013-06-01 04:00:00,63.1,61.7,29.68,SSE,155,0.0,6.0,95,0.01,,-RA,0.32,VWS V14.01,2013-06-01 09:00:00,
2013-06-01 04:01:00,63.1,61.7,29.68,SSW,211,2.0,5.0,95,0.00,,CLR,0.32,VWS V14.01,2013-06-01 09:01:00,
2013-06-01 04:03:00,63.1,61.7,29.68,SSW,200,0.0,5.0,95,0.00,,CLR,0.32,VWS V14.01,2013-06-01 09:03:00,
2013-06-01 04:05:00,63.1,61.7,29.68,SSW,202,2.0,5.0,95,0.00,,CLR,0.32,VWS V14.01,2013-06-01 09:05:00,
2013-06-01 04:06:00,63.1,61.7,29.68,SSW,209,1.0,5.0,95,0.00,,CLR,0.32,VWS V14.01,2013-06-01 09:06:00,
2013-06-01 04:09:00,63.1,61.7,29.68,SSW,196,0.0,5.0,95,0.00,,CLR,0.32,VWS V14.01,2013-06-01 09:09:00,
2013-06-01 04:10:00,63.1,61.7,29.68,SSW,196,0.0,5.0,95,0.00,,CLR,0.32,VWS V14.01,2013-06-01 09:10:00,
2013-06-01 04:11:00,63.1,61.7,29.68,SSW,194,0.0,5.0,95,0.00,,CLR,0.32,VWS V14.01,2013-06-01 09:11:00,
2013-06-01 04:12:00,63.1,61.7,29.68,SSW,194,0.0,5.0,95,0.00,,CLR,0.32,VWS V14.01,2013-06-01 09:12:00,
2013-06-01 04:14:00,63.1,61.7,29.68,SSW,192,0.0,5.0,95,0.00,,CLR,0.32,VWS V14.01,2013-06-01 09:14:00,
2013-06-01 04:15:00,63.1,61.7,29.70,SSW,194,0.0,5.0,95,0.00,,CLR,0.32,VWS V14.01,2013-06-01 09:15:00,
2013-06-01 04:16:00,63.1,61.7,29.70,SSW,194,0.0,5.0,95,0.00,,CLR,0.32,VWS V14.01,2013-06-01 09:16:00,
2013-06-01 04:17:00,63.1,61.7,29.70,SSW,207,0.0,5.0,95,0.00,,CLR,0.32,VWS V14.01,2013-06-01 09:17:00,
2013-06-01 04:19:00,63.1,61.7,29.70,SSW,197,0.0,5.0,95,0.00,,CLR,0.32,VWS V14.01,2013-06-01 09:19:00,
2013-06-01 04:20:00,63.1,61.7,29.70,SW,216,4.0,5.0,95,0.00,,CLR,0.32,VWS V14.01,2013-06-01 09:20:00,
2013-06-01 04:21:00,63.1,61.7,29.70,South,184,3.0,5.0,95,0.00,,CLR,0.32,VWS V14.01,2013-06-01 09:21:00,
2013-06-01 04:22:00,63.1,61.7,29.70,South,186,0.0,5.0,95,0.00,,CLR,0.32,VWS V14.01,2013-06-01 09:22:00,
2013-06-01 04:24:00,63.1,61.7,29.70,South,186,0.0,5.0,95,0.00,,CLR,0.32,VWS V14.01,2013-06-01 09:24:00,
2013-06-01 04:25:00,63.1,61.7,29.70,SSW,204,3.0,5.0,95,0.00,,CLR,0.32,VWS V14.01,2013-06-01 09:25:00,
2013-06-01 04:26:00,63.1,61.7,29.70,SSW,200,2.0,5.0,95,0.00,,CLR,0.32,VWS V14.01,2013-06-01 09:26:00,
2013-06-01 04:27:00,63.1,61.7,29.70,SSW,198,2.0,5.0,95,0.00,,CLR,0.32,VWS V14.01,2013-06-01 09:27:00,
2013-06-01 04:29:00,63.1,61.7,29.70,SSE,167,0.0,7.0,95,0.00,,CLR,0.32,VWS V14.01,2013-06-01 09:29:00,
2013-06-01 04:30:00,63.1,61.7,29.70,SSW,205,3.0,7.0,95,0.00,,,0.32,VWS V14.01,2013-06-01 09:30:00,
2013-06-01 04:31:00,63.1,61.7,29.70,SSW,205,0.0,3.0,95,0.00,,CLR,0.32,VWS V14.01,2013-06-01 09:31:00,
2013-06-01 04:32:00,63.1,61.7,29.70,SSW,202,5.0,7.0,95,0.00,,CLR,0.32,VWS V14.01,2013-06-01 09:32:00,
2013-06-01 04:34:00,63.1,61.7,29.70,South,177,0.0,7.0,95,0.00,,CLR,0.32,VWS V14.01,2013-06-01 09:34:00,
2013-06-01 04:36:00,63.1,61.7,29.70,South,190,0.0,7.0,95,0.00,,CLR,0.32,VWS V14.01,2013-06-01 09:36:00,
2013-06-01 04:37:00,63.1,61.7,29.70,South,182,0.0,7.0,95,0.00,,CLR,0.32,VWS V14.01,2013-06-01 09:37:00,
2013-06-01 04:39:00,63.1,61.7,29.70,SSW,209,0.0,7.0,95,0.00,,CLR,0.32,VWS V14.01,2013-06-01 09:39:00,
2013-06-01 04:41:00,63.1,61.7,29.70,SSW,208,0.0,7.0,95,0.00,,CLR,0.32,VWS V14.01,2013-06-01 09:41:00,
2013-06-01 04:42:00,63.1,61.7,29.70,SSW,208,2.0,7.0,95,0.00,,CLR,0.32,VWS V14.01,2013-06-01 09:42:00,
2013-06-01 04:43:00,63.1,61.7,29.70,SSW,198,0.0,7.0,95,0.00,,CLR,0.32,VWS V14.01,2013-06-01 09:43:00,
2013-06-01 04:44:00,63.1,61.7,29.70,SSW,199,0.0,7.0,95,0.00,,CLR,0.32,VWS V14.01,2013-06-01 09:44:00,
2013-06-01 04:46:00,63.3,61.8,29.72,SSW,199,0.0,7.0,95,0.00,,CLR,0.32,VWS V14.01,2013-06-01 09:46:00,
2013-06-01 04:47:00,63.3,61.8,29.72,SSW,199,0.0,7.0,95,0.00,,CLR,0.32,VWS V14.01,2013-06-01 09:47:00,
2013-06-01 04:48:00,63.3,61.8,29.72,SSW,198,0.0,7.0,95,0.00,,CLR,0.32,VWS V14.01,2013-06-01 09:48:00,
2013-06-01 04:49:00,63.3,61.8,29.72,SSW,199,0.0,7.0,95,0.00,,CLR,0.32,VWS V14.01,2013-06-01 09:49:00,
2013-06-01 04:51:00,63.3,61.8,29.72,South,182,0.0,7.0,95,0.00,,CLR,0.32,VWS V14.01,2013-06-01 09:51:00,
2013-06-01 04:52:00,63.3,61.8,29.72,South,182,0.0,7.0,95,0.00,,CLR,0.32,VWS V14.01,2013-06-01 09:52:00,
2013-06-01 04:53:00,63.3,61.8,29.72,South,181,0.0,7.0,95,0.00,,CLR,0.32,VWS V14.01,2013-06-01 09:53:00,
2013-06-01 04:54:00,63.3,61.8,29.72,South,182,0.0,7.0,95,0.00,,CLR,0.32,VWS V14.01,2013-06-01 09:54:00,
2013-06-01 04:56:00,63.3,61.8,29.72,South,182,0.0,7.0,95,0.00,,CLR,0.32,VWS V14.01,2013-06-01 09:56:00,
2013-06-01 04:57:00,63.3,61.8,29.72,South,182,0.0,7.0,95,0.00,,CLR,0.32,VWS V14.01,2013-06-01 09:57:00,
2013-06-01 04:58:00,63.3,61.8,29.72,South,183,0.0,7.0,95,0.00,,CLR,0.32,VWS V14.01,2013-06-01 09:58:00,
2013-06-01 05:00:00,63.3,61.8,29.70,SSW,199,0.0,7.0,95,0.00,,CLR,0.32,VWS V14.01,2013-06-01 10:00:00,
2013-06-01 05:01:00,63.3,61.8,29.70,SSW,199,0.0,0.0,95,0.00,,CLR,0.32,VWS V14.01,2013-06-01 10:01:00,
2013-06-01 05:02:00,63.3,61.8,29.70,SSW,211,0.0,3.0,95,0.00,,CLR,0.32,VWS V14.01,2013-06-01 10:02:00,
2013-06-01 05:03:00,63.3,61.8,29.70,SSW,211,0.0,3.0,95,0.00,,CLR,0.32,VWS V14.01,2013-06-01 10:03:00,
2013-06-01 05:05:00,63.3,61.8,29.70,South,184,0.0,3.0,95,0.00,,CLR,0.32,VWS V14.01,2013-06-01 10:05:00,
2013-06-01 05:06:00,63.3,61.8,29.70,South,184,2.0,3.0,95,0.00,,CLR,0.32,VWS V14.01,2013-06-01 10:06:00,
2013-06-01 05:07:00,63.3,61.8,29.70,South,186,0.0,3.0,95,0.00,,CLR,0.32,VWS V14.01,2013-06-01 10:07:00,
2013-06-01 05:08:00,63.3,61.8,29.70,SSW,210,0.0,7.0,95,0.00,,CLR,0.32,VWS V14.01,2013-06-01 10:08:00,
2013-06-01 05:10:00,63.3,61.8,29.70,South,188,0.0,7.0,95,0.00,,CLR,0.32,VWS V14.01,2013-06-01 10:10:00,
2013-06-01 05:12:00,63.3,61.8,29.70,South,188,0.0,7.0,95,0.00,,CLR,0.32,VWS V14.01,2013-06-01 10:12:00,
2013-06-01 05:13:00,63.3,61.8,29.70,SSW,193,0.0,7.0,95,0.00,,CLR,0.32,VWS V14.01,2013-06-01 10:13:00,
2013-06-01 05:15:00,63.3,61.8,29.69,South,180,0.0,7.0,95,0.00,,CLR,0.32,VWS V14.01,2013-06-01 10:15:00,
2013-06-01 05:17:00,63.3,61.8,29.69,South,183,1.0,7.0,95,0.00,,CLR,0.32,VWS V14.01,2013-06-01 10:17:00,
2013-06-01 05:18:00,63.3,61.8,29.69,South,182,0.0,7.0,95,0.00,,CLR,0.32,VWS V14.01,2013-06-01 10:18:00,
2013-06-01 05:20:00,63.3,61.8,29.69,South,186,0.0,7.0,95,0.00,,CLR,0.32,VWS V14.01,2013-06-01 10:20:00,
2013-06-01 05:22:00,63.3,61.8,29.69,South,173,0.0,7.0,95,0.00,,CLR,0.32,VWS V14.01,2013-06-01 10:22:00,
2013-06-01 05:23:00,63.3,61.8,29.69,South,173,0.0,7.0,95,0.00,,CLR,0.32,VWS V14.01,2013-06-01 10:23:00,
2013-06-01 05:24:00,63.3,61.8,29.69,SSW,200,0.0,7.0,95,0.00,,CLR,0.32,VWS V14.01,2013-06-01 10:24:00,
2013-06-01 05:25:00,63.3,61.8,29.69,South,184,0.0,7.0,95,0.00,,CLR,0.32,VWS V14.01,2013-06-01 10:25:00,
2013-06-01 05:27:00,63.3,61.8,29.69,South,190,1.0,7.0,95,0.00,,CLR,0.32,VWS V14.01,2013-06-01 10:27:00,
2013-06-01 05:28:00,63.3,61.8,29.69,South,190,0.0,7.0,95,0.00,,CLR,0.32,VWS V14.01,2013-06-01 10:28:00,
2013-06-01 05:29:00,63.3,61.8,29.69,SSW,206,0.0,7.0,95,0.00,,CLR,0.32,VWS V14.01,2013-06-01 10:29:00,
2013-06-01 05:30:00,63.3,61.8,29.67,SSW,193,0.0,7.0,95,0.00,,CLR,0.32,VWS V14.01,2013-06-01 10:30:00,
2013-06-01 05:32:00,63.3,61.8,29.67,South,184,0.0,4.0,95,0.00,,CLR,0.32,VWS V14.01,2013-06-01 10:32:00,
2013-06-01 05:33:00,63.3,61.8,29.67,SSE,155,2.0,4.0,95,0.00,,CLR,0.32,VWS V14.01,2013-06-01 10:33:00,
2013-06-01 05:34:00,63.3,61.8,29.67,SSW,192,2.0,4.0,95,0.00,,CLR,0.32,VWS V14.01,2013-06-01 10:34:00,
2013-06-01 05:35:00,63.3,61.8,29.67,SSW,204,5.0,5.0,95,0.00,,CLR,0.32,VWS V14.01,2013-06-01 10:35:00,
2013-06-01 05:37:00,63.3,61.8,29.67,SW,220,5.0,10.0,95,0.00,,CLR,0.32,VWS V14.01,2013-06-01 10:37:00,
2013-06-01 05:38:00,63.4,62.0,29.67,South,175,0.0,10.0,95,0.00,,CLR,0.32,VWS V14.01,2013-06-01 10:38:00,
2013-06-01 05:39:00,63.4,62.0,29.67,South,183,2.0,10.0,95,0.00,,CLR,0.32,VWS V14.01,2013-06-01 10:39:00,
2013-06-01 05:41:00,63.4,62.0,29.67,SSW,196,4.0,10.0,95,0.00,,CLR,0.32,VWS V14.01,2013-06-01 10:41:00,
2013-06-01 05:43:00,63.4,62.0,29.67,SSW,196,0.0,10.0,95,0.00,,CLR,0.32,VWS V14.01,2013-06-01 10:43:00,
2013-06-01 05:44:00,63.4,62.0,29.67,SSW,192,0.0,10.0,95,0.00,,CLR,0.32,VWS V14.01,2013-06-01 10:44:00,
2013-06-01 05:46:00,63.4,62.0,29.72,SSW,195,0.0,10.0,95,0.00,,SCT006,0.32,VWS V14.01,2013-06-01 10:46:00,
2013-06-01 05:48:00,63.4,62.0,29.72,South,190,1.0,10.0,95,0.00,,SCT006,0.32,VWS V14.01,2013-06-01 10:48:00,
2013-06-01 05:49:00,63.4,62.0,29.72,South,188,0.0,10.0,95,0.00,,SCT006,0.32,VWS V14.01,2013-06-01 10:49:00,
2013-06-01 05:51:00,63.4,62.0,29.72,ESE,115,1.0,10.0,95,0.00,,SCT006,0.32,VWS V14.01,2013-06-01 10:51:00,
2013-06-01 05:53:00,63.4,62.0,29.72,SSW,192,0.0,10.0,95,0.00,,SCT006,0.32,VWS V14.01,2013-06-01 10:53:00,
2013-06-01 05:54:00,63.4,62.0,29.72,South,180,6.0,10.0,95,0.00,,SCT006,0.32,VWS V14.01,2013-06-01 10:54:00,
2013-06-01 05:56:00,63.4,62.0,29.72,South,186,3.0,10.0,95,0.00,,SCT006,0.32,VWS V14.01,2013-06-01 10:56:00,
2013-06-01 05:58:00,63.4,62.0,29.72,SSW,198,3.0,10.0,95,0.00,,SCT006,0.32,VWS V14.01,2013-06-01 10:58:00,
2013-06-01 05:59:00,63.6,62.2,29.72,SSW,192,2.0,10.0,95,0.00,,SCT006,0.32,VWS V14.01,2013-06-01 10:59:00,
2013-06-01 06:00:00,63.6,62.2,29.74,SSW,196,2.0,10.0,95,0.00,,,0.32,VWS V14.01,2013-06-01 11:00:00,
2013-06-01 06:01:00,63.6,62.2,29.74,South,182,3.0,4.0,95,0.00,,SCT006,0.32,VWS V14.01,2013-06-01 11:01:00,
2013-06-01 06:03:00,63.6,62.2,29.74,South,175,5.0,7.0,95,0.00,,SCT006,0.32,VWS V14.01,2013-06-01 11:03:00,
2013-06-01 06:04:00,63.6,62.2,29.74,SW,228,0.0,7.0,95,0.00,,SCT006,0.32,VWS V14.01,2013-06-01 11:04:00,
2013-06-01 06:05:00,63.6,62.2,29.74,SW,217,0.0,7.0,95,0.00,,SCT006,0.32,VWS V14.01,2013-06-01 11:05:00,
2013-06-01 06:06:00,63.6,62.2,29.74,SSE,165,0.0,7.0,95,0.00,,SCT006,0.32,VWS V14.01,2013-06-01 11:06:00,
2013-06-01 06:08:00,63.6,62.2,29.74,South,182,3.0,7.0,95,0.00,,SCT006,0.32,VWS V14.01,2013-06-01 11:08:00,
2013-06-01 06:09:00,63.6,62.2,29.74,SSW,207,4.0,7.0,95,0.00,,SCT006,0.32,VWS V14.01,2013-06-01 11:09:00,
2013-06-01 06:10:00,63.6,62.2,29.74,South,175,8.0,10.0,95,0.00,,SCT006,0.32,VWS V14.01,2013-06-01 11:10:00,
2013-06-01 06:11:00,63.6,62.2,29.74,SSW,194,7.0,12.0,95,0.00,,SCT006,0.32,VWS V14.01,2013-06-01 11:11:00,
2013-06-01 06:13:00,63.6,62.2,29.74,SSE,154,4.0,12.0,95,0.00,,SCT006,0.32,VWS V14.01,2013-06-01 11:13:00,
2013-06-01 06:14:00,63.6,62.2,29.74,South,185,1.0,12.0,95,0.00,,SCT006,0.32,VWS V14.01,2013-06-01 11:14:00,
2013-06-01 06:15:00,63.6,62.2,29.71,South,180,3.0,12.0,95,0.00,,SCT006,0.32,VWS V14.01,2013-06-01 11:15:00,
2013-06-01 06:16:00,63.6,62.2,29.71,South,173,0.0,12.0,95,0.00,,BKN120,0.32,VWS V14.01,2013-06-01 11:16:00,
2013-06-01 06:18:00,63.6,62.2,29.71,SW,214,5.0,12.0,95,0.00,,BKN120,0.32,VWS V14.01,2013-06-01 11:18:00,
2013-06-01 06:19:00,63.6,62.2,29.71,SSW,198,0.0,12.0,95,0.00,,BKN120,0.32,VWS V14.01,2013-06-01 11:19:00,
2013-06-01 06:20:00,63.6,62.2,29.71,ESE,111,5.0,12.0,95,0.00,,BKN120,0.32,VWS V14.01,2013-06-01 11:20:00,
2013-06-01 06:21:00,63.6,62.2,29.71,SE,142,0.0,12.0,95,0.00,,BKN120,0.32,VWS V14.01,2013-06-01 11:21:00,
2013-06-01 06:23:00,63.6,62.2,29.71,SE,139,0.0,12.0,95,0.00,,BKN120,0.32,VWS V14.01,2013-06-01 11:23:00,
2013-06-01 06:24:00,63.6,62.2,29.71,South,177,0.0,12.0,95,0.00,,BKN120,0.32,VWS V14.01,2013-06-01 11:24:00,
2013-06-01 06:25:00,63.6,62.2,29.71,SSW,201,2.0,12.0,95,0.00,,BKN120,0.32,VWS V14.01,2013-06-01 11:25:00,
2013-06-01 06:26:00,63.6,62.2,29.71,South,187,4.0,12.0,95,0.00,,BKN120,0.32,VWS V14.01,2013-06-01 11:26:00,
2013-06-01 06:28:00,63.6,62.2,29.71,SSW,211,0.0,12.0,95,0.00,,BKN120,0.32,VWS V14.01,2013-06-01 11:28:00,
2013-06-01 06:30:00,63.8,62.3,29.73,SSW,198,0.0,12.0,95,0.00,,BKN120,0.32,VWS V14.01,2013-06-01 11:30:00,
2013-06-01 06:31:00,63.6,62.2,29.73,South,178,1.0,11.0,95,0.00,,BKN120,0.32,VWS V14.01,2013-06-01 11:31:00,
2013-06-01 06:33:00,63.8,62.3,29.73,SW,222,6.0,11.0,95,0.00,,BKN120,0.32,VWS V14.01,2013-06-01 11:33:00,
2013-06-01 06:35:00,63.8,62.3,29.73,South,191,0.0,12.0,95,0.00,,BKN120,0.32,VWS V14.01,2013-06-01 11:35:00,
2013-06-01 06:37:00,63.8,62.3,29.73,SSW,196,4.0,12.0,95,0.00,,BKN120,0.32,VWS V14.01,2013-06-01 11:37:00,
2013-06-01 06:38:00,63.8,62.3,29.73,SSW,207,6.0,12.0,95,0.00,,BKN120,0.32,VWS V14.01,2013-06-01 11:38:00,
2013-06-01 06:40:00,63.8,62.3,29.73,South,190,0.0,12.0,95,0.00,,BKN120,0.32,VWS V14.01,2013-06-01 11:40:00,
2013-06-01 06:41:00,63.8,62.3,29.73,South,175,3.0,12.0,95,0.00,,BKN120,0.32,VWS V14.01,2013-06-01 11:41:00,
2013-06-01 06:42:00,63.8,62.3,29.73,SW,214,5.0,12.0,95,0.00,,BKN120,0.32,VWS V14.01,2013-06-01 11:42:00,
2013-06-01 06:44:00,63.8,62.3,29.73,South,175,3.0,12.0,95,0.00,,BKN120,0.32,VWS V14.01,2013-06-01 11:44:00,
2013-06-01 06:45:00,63.8,62.3,29.75,South,177,2.0,13.0,95,0.00,,BKN120,0.32,VWS V14.01,2013-06-01 11:45:00,
2013-06-01 06:46:00,63.8,62.3,29.75,SSW,208,0.0,13.0,95,0.00,,BKN120,0.32,VWS V14.01,2013-06-01 11:46:00,
2013-06-01 06:48:00,63.8,62.3,29.75,SSW,196,0.0,13.0,95,0.00,,BKN120,0.32,VWS V14.01,2013-06-01 11:48:00,
2013-06-01 06:49:00,63.9,62.4,29.75,South,173,1.0,13.0,95,0.00,,BKN120,0.32,VWS V14.01,2013-06-01 11:49:00,
2013-06-01 06:51:00,63.9,62.4,29.75,South,169,5.0,13.0,95,0.00,,BKN120,0.32,VWS V14.01,2013-06-01 11:51:00,
2013-06-01 06:53:00,63.9,62.4,29.75,South,185,2.0,13.0,95,0.00,,BKN120,0.32,VWS V14.01,2013-06-01 11:53:00,
2013-06-01 06:54:00,63.9,62.4,29.75,ESE,111,1.0,13.0,95,0.00,,BKN120,0.32,VWS V14.01,2013-06-01 11:54:00,
2013-06-01 06:56:00,63.9,62.4,29.75,South,190,0.0,13.0,95,0.00,,BKN120,0.32,VWS V14.01,2013-06-01 11:56:00,
2013-06-01 06:58:00,63.9,62.4,29.75,SSW,211,9.0,13.0,95,0.00,,BKN120,0.32,VWS V14.01,2013-06-01 11:58:00,
2013-06-01 06:59:00,63.9,62.4,29.75,South,188,0.0,13.0,95,0.00,,BKN120,0.32,VWS V14.01,2013-06-01 11:59:00,
2013-06-01 07:00:00,63.9,62.4,29.76,South,184,1.0,13.0,95,0.00,,,0.32,VWS V14.01,2013-06-01 12:00:00,
2013-06-01 07:01:00,63.9,62.4,29.76,SSW,207,1.0,5.0,95,0.00,,BKN120,0.32,VWS V14.01,2013-06-01 12:01:00,
2013-06-01 07:02:00,63.9,62.4,29.76,South,179,0.0,5.0,95,0.00,,BKN120,0.32,VWS V14.01,2013-06-01 12:02:00,
2013-06-01 07:03:00,63.9,62.4,29.76,South,186,0.0,5.0,95,0.00,,BKN120,0.32,VWS V14.01,2013-06-01 12:03:00,
2013-06-01 07:04:00,63.9,62.4,29.76,SSW,200,3.0,7.0,95,0.00,,BKN120,0.32,VWS V14.01,2013-06-01 12:04:00,
2013-06-01 07:06:00,63.9,62.4,29.76,SSW,194,2.0,7.0,95,0.00,,BKN120,0.32,VWS V14.01,2013-06-01 12:06:00,
2013-06-01 07:07:00,63.9,62.4,29.76,ESE,119,3.0,7.0,95,0.00,,BKN120,0.32,VWS V14.01,2013-06-01 12:07:00,
2013-06-01 07:08:00,63.9,62.4,29.76,South,185,10.0,10.0,95,0.00,,BKN120,0.32,VWS V14.01,2013-06-01 12:08:00,
2013-06-01 07:09:00,63.9,62.4,29.76,SE,144,2.0,12.0,95,0.00,,BKN120,0.32,VWS V14.01,2013-06-01 12:09:00,
2013-06-01 07:11:00,63.9,62.4,29.76,South,182,11.0,12.0,95,0.00,,BKN120,0.32,VWS V14.01,2013-06-01 12:11:00,
2013-06-01 07:12:00,63.9,62.4,29.76,SSE,154,0.0,12.0,95,0.00,,BKN120,0.32,VWS V14.01,2013-06-01 12:12:00,
2013-06-01 07:13:00,63.9,62.4,29.76,SSW,204,3.0,12.0,95,0.00,,BKN120,0.32,VWS V14.01,2013-06-01 12:13:00,
2013-06-01 07:14:00,63.9,62.1,29.76,SSW,202,2.0,12.0,94,0.00,,BKN120,0.32,VWS V14.01,2013-06-01 12:14:00,
2013-06-01 07:16:00,63.9,62.1,29.75,SSW,199,2.0,12.0,94,0.00,,BKN120,0.32,VWS V14.01,2013-06-01 12:16:00,
2013-06-01 07:17:00,63.9,62.1,29.75,South,186,1.0,12.0,94,0.00,,BKN120,0.32,VWS V14.01,2013-06-01 12:17:00,
2013-06-01 07:18:00,63.9,62.1,29.75,SSW,193,1.0,12.0,94,0.00,,BKN120,0.32,VWS V14.01,2013-06-01 12:18:00,
2013-06-01 07:20:00,64.1,62.3,29.75,SSW,209,5.0,12.0,94,0.00,,BKN120,0.32,VWS V14.01,2013-06-01 12:20:00,
2013-06-01 07:21:00,64.1,62.3,29.75,SSW,192,3.0,12.0,94,0.00,,BKN120,0.32,VWS V14.01,2013-06-01 12:21:00,
2013-06-01 07:22:00,64.1,62.3,29.75,SSW,204,9.0,12.0,94,0.00,,BKN120,0.32,VWS V14.01,2013-06-01 12:22:00,
2013-06-01 07:24:00,64.1,62.3,29.75,South,191,2.0,12.0,94,0.00,,BKN120,0.32,VWS V14.01,2013-06-01 12:24:00,
2013-06-01 07:25:00,64.1,62.3,29.75,South,178,9.0,12.0,94,0.00,,BKN120,0.32,VWS V14.01,2013-06-01 12:25:00,
2013-06-01 07:27:00,64.1,62.3,29.75,South,186,0.0,12.0,94,0.00,,BKN120,0.32,VWS V14.01,2013-06-01 12:27:00,
2013-06-01 07:28:00,64.1,62.3,29.75,SSE,155,0.0,12.0,94,0.00,,BKN120,0.32,VWS V14.01,2013-06-01 12:28:00,
2013-06-01 07:29:00,64.1,62.3,29.75,SSW,205,3.0,12.0,94,0.00,,BKN120,0.32,VWS V14.01,2013-06-01 12:29:00,
2013-06-01 07:30:00,64.1,62.3,29.77,South,182,3.0,12.0,94,0.00,,BKN120,0.32,VWS V14.01,2013-06-01 12:30:00,
2013-06-01 07:32:00,64.1,62.3,29.77,South,181,0.0,9.0,94,0.00,,BKN120,0.32,VWS V14.01,2013-06-01 12:32:00,
2013-06-01 07:33:00,64.1,62.3,29.77,SE,131,3.0,9.0,94,0.00,,BKN120,0.32,VWS V14.01,2013-06-01 12:33:00,
2013-06-01 07:34:00,64.1,62.3,29.77,SSW,200,2.0,9.0,94,0.00,,BKN120,0.32,VWS V14.01,2013-06-01 12:34:00,
2013-06-01 07:35:00,64.1,62.3,29.77,South,190,0.0,9.0,94,0.00,,BKN120,0.32,VWS V14.01,2013-06-01 12:35:00,
2013-06-01 07:37:00,64.1,62.3,29.77,South,181,0.0,9.0,94,0.00,,BKN120,0.32,VWS V14.01,2013-06-01 12:37:00,
2013-06-01 07:39:00,64.1,62.3,29.77,South,186,4.0,10.0,94,0.00,,BKN120,0.32,VWS V14.01,2013-06-01 12:39:00,
2013-06-01 07:40:00,64.1,62.3,29.77,South,184,0.0,10.0,94,0.00,,BKN120,0.32,VWS V14.01,2013-06-01 12:40:00,
2013-06-01 07:42:00,64.1,62.3,29.77,SW,214,4.0,10.0,94,0.00,,BKN120,0.32,VWS V14.01,2013-06-01 12:42:00,
2013-06-01 07:44:00,64.1,62.3,29.77,SSW,192,4.0,10.0,94,0.00,,BKN120,0.32,VWS V14.01,2013-06-01 12:44:00,
2013-06-01 07:45:00,64.1,62.3,29.77,SSW,194,0.0,15.0,94,0.00,,BKN120,0.32,VWS V14.01,2013-06-01 12:45:00,
2013-06-01 07:47:00,64.1,62.3,29.77,SSE,158,3.0,15.0,94,0.00,,BKN120,0.32,VWS V14.01,2013-06-01 12:47:00,
2013-06-01 07:49:00,64.1,62.3,29.77,South,178,1.0,15.0,94,0.00,,BKN120,0.32,VWS V14.01,2013-06-01 12:49:00,
2013-06-01 07:50:00,64.1,62.3,29.77,South,189,0.0,15.0,94,0.00,,BKN120,0.32,VWS V14.01,2013-06-01 12:50:00,
2013-06-01 07:52:00,64.1,62.3,29.77,SSW,197,9.0,15.0,94,0.00,,BKN120,0.32,VWS V14.01,2013-06-01 12:52:00,
2013-06-01 07:53:00,64.1,62.3,29.77,SSW,193,3.0,15.0,94,0.00,,BKN120,0.32,VWS V14.01,2013-06-01 12:53:00,
2013-06-01 07:54:00,64.1,62.3,29.77,SE,144,4.0,15.0,94,0.00,,BKN120,0.32,VWS V14.01,2013-06-01 12:54:00,
2013-06-01 07:55:00,64.1,62.3,29.77,South,181,7.0,15.0,94,0.00,,BKN120,0.32,VWS V14.01,2013-06-01 12:55:00,
2013-06-01 07:58:00,64.2,62.4,29.77,SSW,201,3.0,15.0,94,0.00,,BKN120,0.32,VWS V14.01,2013-06-01 12:58:00,
2013-06-01 08:00:00,64.2,62.4,29.78,South,171,12.0,15.0,94,0.00,,BKN120,0.32,VWS V14.01,2013-06-01 13:00:00,
2013-06-01 08:03:00,64.2,62.4,29.78,SSW,212,9.0,9.0,94,0.00,,BKN120,0.32,VWS V14.01,2013-06-01 13:03:00,
2013-06-01 08:05:00,64.2,62.4,29.78,SSW,192,0.0,12.0,94,0.01,,BKN120,0.33,VWS V14.01,2013-06-01 13:05:00,
2013-06-01 08:08:00,64.2,62.4,29.78,SSW,200,1.0,15.0,94,0.01,,BKN120,0.33,VWS V14.01,2013-06-01 13:08:00,
2013-06-01 08:10:00,64.2,62.4,29.78,SSW,213,4.0,15.0,94,0.01,,BKN120,0.33,VWS V14.01,2013-06-01 13:10:00,
2013-06-01 08:11:00,64.2,62.4,29.78,SSW,198,1.0,15.0,94,0.01,,BKN120,0.33,VWS V14.01,2013-06-01 13:11:00,
2013-06-01 08:13:00,64.2,62.4,29.78,South,177,2.0,15.0,94,0.01,,BKN120,0.33,VWS V14.01,2013-06-01 13:13:00,
2013-06-01 08:15:00,64.2,62.4,29.78,South,169,0.0,15.0,94,0.01,,BKN120,0.33,VWS V14.01,2013-06-01 13:15:00,
2013-06-01 08:16:00,64.2,62.4,29.78,SSW,211,7.0,15.0,94,0.01,,BKN110,0.33,VWS V14.01,2013-06-01 13:16:00,
2013-06-01 08:18:00,64.2,62.4,29.78,SSW,198,5.0,15.0,94,0.01,,BKN110,0.33,VWS V14.01,2013-06-01 13:18:00,
2013-06-01 08:20:00,64.2,62.4,29.78,SE,135,6.0,15.0,94,0.01,,BKN110,0.33,VWS V14.01,2013-06-01 13:20:00,
2013-06-01 08:21:00,64.2,62.4,29.78,SSW,199,0.0,15.0,94,0.01,,BKN110,0.33,VWS V14.01,2013-06-01 13:21:00,
2013-06-01 08:23:00,64.2,62.4,29.78,South,177,0.0,15.0,94,0.01,,BKN110,0.33,VWS V14.01,2013-06-01 13:23:00,
2013-06-01 08:25:00,64.2,62.4,29.78,SSW,201,4.0,15.0,94,0.01,,BKN110,0.33,VWS V14.01,2013-06-01 13:25:00,
2013-06-01 08:26:00,64.2,62.4,29.78,SSW,196,0.0,15.0,94,0.01,,BKN110,0.33,VWS V14.01,2013-06-01 13:26:00,
2013-06-01 08:27:00,64.2,62.4,29.78,SW,218,3.0,15.0,94,0.01,,BKN110,0.33,VWS V14.01,2013-06-01 13:27:00,
2013-06-01 08:28:00,64.2,62.4,29.78,SE,130,4.0,15.0,94,0.01,,BKN110,0.33,VWS V14.01,2013-06-01 13:28:00,
2013-06-01 08:30:00,64.2,62.4,29.77,SW,223,9.0,16.0,94,0.02,,BKN110,0.34,VWS V14.01,2013-06-01 13:30:00,
2013-06-01 08:31:00,64.2,62.4,29.77,SSW,196,3.0,5.0,94,0.02,,BKN110,0.34,VWS V14.01,2013-06-01 13:31:00,
2013-06-01 08:32:00,64.2,62.4,29.77,South,180,2.0,6.0,94,0.02,,BKN110,0.34,VWS V14.01,2013-06-01 13:32:00,
2013-06-01 08:33:00,64.2,62.4,29.77,SSE,158,3.0,11.0,94,0.02,,BKN110,0.34,VWS V14.01,2013-06-01 13:33:00,
2013-06-01 08:34:00,64.2,62.4,29.77,SSW,202,4.0,11.0,94,0.02,,BKN110,0.34,VWS V14.01,2013-06-01 13:34:00,
2013-06-01 08:35:00,64.2,62.4,29.77,South,186,2.0,11.0,94,0.02,,BKN110,0.34,VWS V14.01,2013-06-01 13:35:00,
2013-06-01 08:36:00,64.2,62.4,29.77,SSW,194,4.0,11.0,94,0.02,,BKN110,0.34,VWS V14.01,2013-06-01 13:36:00,
2013-06-01 08:37:00,64.2,62.4,29.77,South,184,3.0,11.0,94,0.02,,BKN110,0.34,VWS V14.01,2013-06-01 13:37:00,
2013-06-01 08:38:00,64.2,62.4,29.77,South,181,3.0,13.0,94,0.03,,BKN110,0.35,VWS V14.01,2013-06-01 13:38:00,
2013-06-01 08:39:00,64.2,62.4,29.77,SSW,202,1.0,13.0,94,0.03,,BKN110,0.35,VWS V14.01,2013-06-01 13:39:00,
2013-06-01 08:40:00,64.2,62.4,29.77,ESE,120,4.0,13.0,94,0.03,,BKN110,0.35,VWS V14.01,2013-06-01 13:40:00,
2013-06-01 08:41:00,64.2,62.4,29.77,South,178,6.0,13.0,94,0.03,,BKN110,0.35,VWS V14.01,2013-06-01 13:41:00,
2013-06-01 08:42:00,64.2,62.4,29.77,South,180,2.0,13.0,94,0.03,,BKN110,0.35,VWS V14.01,2013-06-01 13:42:00,
2013-06-01 08:43:00,64.2,62.4,29.77,SSW,196,0.0,13.0,94,0.03,,BKN110,0.35,VWS V14.01,2013-06-01 13:43:00,
2013-06-01 08:44:00,64.2,62.4,29.77,SSW,194,0.0,13.0,94,0.03,,BKN110,0.35,VWS V14.01,2013-06-01 13:44:00,
2013-06-01 08:45:00,64.2,62.4,29.75,South,183,1.0,17.0,94,0.03,,BKN110,0.35,VWS V14.01,2013-06-01 13:45:00,
2013-06-01 08:46:00,64.2,62.4,29.75,South,187,3.0,17.0,94,0.03,,BKN110,0.35,VWS V14.01,2013-06-01 13:46:00,
2013-06-01 08:47:00,64.2,62.4,29.75,South,184,3.0,17.0,94,0.03,,BKN110,0.35,VWS V14.01,2013-06-01 13:47:00,
2013-06-01 08:49:00,64.2,62.4,29.75,SSW,211,3.0,17.0,94,0.03,,BKN110,0.35,VWS V14.01,2013-06-01 13:49:00,
2013-06-01 08:51:00,64.2,62.4,29.75,SSW,194,6.0,17.0,94,0.03,,BKN110,0.35,VWS V14.01,2013-06-01 13:51:00,
2013-06-01 08:52:00,64.1,62.3,29.75,SSW,211,5.0,17.0,94,0.03,,BKN110,0.35,VWS V14.01,2013-06-01 13:52:00,
2013-06-01 08:54:00,64.2,62.4,29.75,East,98,13.0,17.0,94,0.03,,BKN110,0.35,VWS V14.01,2013-06-01 13:54:00,
2013-06-01 08:56:00,64.2,62.4,29.75,South,188,2.0,17.0,94,0.03,,BKN110,0.35,VWS V14.01,2013-06-01 13:56:00,
2013-06-01 08:57:00,64.2,62.4,29.75,South,175,2.0,17.0,94,0.03,,BKN110,0.35,VWS V14.01,2013-06-01 13:57:00,
2013-06-01 08:59:00,64.2,62.4,29.75,SSW,212,0.0,17.0,94,0.03,,BKN110,0.35,VWS V14.01,2013-06-01 13:59:00,
2013-06-01 09:00:00,64.2,62.4,29.73,SSW,192,10.0,17.0,94,0.03,,BKN110,0.35,VWS V14.01,2013-06-01 14:00:00,
2013-06-01 09:01:00,64.2,62.4,29.73,South,189,1.0,4.0,94,0.03,,-RA,0.35,VWS V14.01,2013-06-01 14:01:00,
2013-06-01 09:02:00,64.2,62.4,29.73,SSW,211,8.0,8.0,94,0.03,,-RA,0.35,VWS V14.01,2013-06-01 14:02:00,
2013-06-01 09:04:00,64.2,62.4,29.73,South,188,6.0,13.0,94,0.03,,-RA,0.35,VWS V14.01,2013-06-01 14:04:00,
2013-06-01 09:05:00,64.2,62.4,29.73,SE,143,7.0,13.0,94,0.03,,-RA,0.35,VWS V14.01,2013-06-01 14:05:00,
2013-06-01 09:06:00,64.2,62.4,29.73,South,177,6.0,13.0,94,0.03,,-RA,0.35,VWS V14.01,2013-06-01 14:06:00,
2013-06-01 09:07:00,64.2,62.4,29.73,SSW,195,0.0,13.0,94,0.03,,-RA,0.35,VWS V14.01,2013-06-01 14:07:00,
2013-06-01 09:10:00,64.2,62.4,29.73,SSW,197,2.0,17.0,94,0.03,,-RA,0.35,VWS V14.01,2013-06-01 14:10:00,
2013-06-01 09:11:00,64.2,62.4,29.73,South,178,2.0,17.0,94,0.03,,-RA,0.35,VWS V14.01,2013-06-01 14:11:00,
2013-06-01 09:12:00,64.2,62.4,29.73,SSW,198,3.0,17.0,94,0.03,,-RA,0.35,VWS V14.01,2013-06-01 14:12:00,
2013-06-01 09:13:00,64.2,62.4,29.73,South,186,0.0,17.0,94,0.03,,-RA,0.35,VWS V14.01,2013-06-01 14:13:00,
2013-06-01 09:15:00,64.2,62.4,29.74,SW,217,4.0,17.0,94,0.03,,-RA,0.35,VWS V14.01,2013-06-01 14:15:00,
2013-06-01 09:16:00,64.2,62.4,29.74,South,186,3.0,17.0,94,0.03,,-RA,0.35,VWS V14.01,2013-06-01 14:16:00,
2013-06-01 09:17:00,64.2,62.4,29.74,SW,228,7.0,17.0,94,0.03,,-RA,0.35,VWS V14.01,2013-06-01 14:17:00,
2013-06-01 09:18:00,64.2,62.4,29.74,SE,128,0.0,17.0,94,0.03,,-RA,0.35,VWS V14.01,2013-06-01 14:18:00,
2013-06-01 09:20:00,64.4,62.6,29.74,SW,235,19.0,19.0,94,0.03,,-RA,0.35,VWS V14.01,2013-06-01 14:20:00,
2013-06-01 09:21:00,64.4,62.6,29.74,SSE,165,0.0,19.0,94,0.03,,-RA,0.35,VWS V14.01,2013-06-01 14:21:00,
2013-06-01 09:23:00,64.4,62.6,29.74,SSE,157,4.0,19.0,94,0.03,,-RA,0.35,VWS V14.01,2013-06-01 14:23:00,
2013-06-01 09:25:00,64.4,62.6,29.74,SSW,212,2.0,19.0,94,0.03,,-RA,0.35,VWS V14.01,2013-06-01 14:25:00,
2013-06-01 09:27:00,64.4,62.6,29.74,SSW,207,5.0,19.0,94,0.03,,-RA,0.35,VWS V14.01,2013-06-01 14:27:00,
2013-06-01 09:28:00,64.4,62.6,29.74,SSE,150,0.0,19.0,94,0.03,,-RA,0.35,VWS V14.01,2013-06-01 14:28:00,
2013-06-01 09:30:00,64.6,62.8,29.74,South,175,7.0,19.0,94,0.03,,-RA,0.35,VWS V14.01,2013-06-01 14:30:00,
2013-06-01 09:32:00,64.6,62.8,29.74,SW,220,3.0,13.0,94,0.01,,-RA,0.35,VWS V14.01,2013-06-01 14:32:00,
2013-06-01 09:33:00,64.6,62.8,29.74,South,189,3.0,14.0,94,0.01,,-RA,0.35,VWS V14.01,2013-06-01 14:33:00,
2013-06-01 09:35:00,64.6,62.8,29.74,South,184,0.0,14.0,94,0.01,,-RA,0.35,VWS V14.01,2013-06-01 14:35:00,
2013-06-01 09:36:00,64.6,62.8,29.74,SSW,192,0.0,14.0,94,0.01,,-RA,0.35,VWS V14.01,2013-06-01 14:36:00,
2013-06-01 09:37:00,64.6,62.8,29.74,South,187,0.0,14.0,94,0.01,,-RA,0.35,VWS V14.01,2013-06-01 14:37:00,
2013-06-01 09:38:00,64.7,62.9,29.74,South,188,0.0,14.0,94,0.01,,-RA,0.35,VWS V14.01,2013-06-01 14:38:00,
2013-06-01 09:40:00,64.6,62.8,29.74,SSW,205,0.0,16.0,94,0.01,,-RA,0.35,VWS V14.01,2013-06-01 14:40:00,
2013-06-01 09:41:00,64.7,62.9,29.74,SSE,163,0.0,16.0,94,0.01,,-RA,0.35,VWS V14.01,2013-06-01 14:41:00,
2013-06-01 09:42:00,64.7,62.9,29.74,SSE,160,0.0,16.0,94,0.01,,-RA,0.35,VWS V14.01,2013-06-01 14:42:00,
2013-06-01 09:43:00,64.7,62.9,29.74,SSW,196,13.0,16.0,94,0.01,,-RA,0.35,VWS V14.01,2013-06-01 14:43:00,
2013-06-01 09:46:00,64.7,62.9,29.72,SE,140,0.0,16.0,94,0.01,,-RA,0.35,VWS V14.01,2013-06-01 14:46:00,
2013-06-01 09:47:00,64.7,62.9,29.72,SSW,203,2.0,16.0,94,0.01,,-RA,0.35,VWS V14.01,2013-06-01 14:47:00,
2013-06-01 09:48:00,64.7,62.6,29.72,SSW,202,0.0,16.0,93,0.01,,-RA,0.35,VWS V14.01,2013-06-01 14:48:00,
2013-06-01 09:49:00,64.7,62.9,29.72,SSW,205,0.0,16.0,94,0.01,,-RA,0.35,VWS V14.01,2013-06-01 14:49:00,
2013-06-01 09:51:00,64.7,62.6,29.72,South,186,0.0,16.0,93,0.01,,-RA,0.35,VWS V14.01,2013-06-01 14:51:00,
2013-06-01 09:52:00,64.7,62.6,29.72,South,188,0.0,16.0,93,0.01,,-RA,0.35,VWS V14.01,2013-06-01 14:52:00,
2013-06-01 09:53:00,64.9,62.8,29.72,SSW,213,2.0,16.0,93,0.01,,-RA,0.35,VWS V14.01,2013-06-01 14:53:00,
2013-06-01 09:54:00,64.9,62.8,29.72,SSW,202,11.0,16.0,93,0.01,,-RA,0.35,VWS V14.01,2013-06-01 14:54:00,
2013-06-01 09:56:00,64.9,63.1,29.72,South,186,4.0,16.0,94,0.01,,-RA,0.35,VWS V14.01,2013-06-01 14:56:00,
2013-06-01 09:57:00,64.9,62.8,29.72,SSE,168,0.0,16.0,93,0.01,,-RA,0.35,VWS V14.01,2013-06-01 14:57:00,
2013-06-01 09:58:00,64.9,62.8,29.72,SSE,167,3.0,16.0,93,0.01,,-RA,0.35,VWS V14.01,2013-06-01 14:58:00,
2013-06-01 10:00:00,64.9,62.8,29.71,SSW,196,0.0,16.0,93,0.01,,,0.35,VWS V14.01,2013-06-01 15:00:00,
2013-06-01 10:01:00,65.1,63.0,29.71,South,189,4.0,4.0,93,0.00,,OVC009,0.35,VWS V14.01,2013-06-01 15:01:00,
2013-06-01 10:03:00,65.1,63.0,29.71,South,175,0.0,4.0,93,0.00,,OVC009,0.35,VWS V14.01,2013-06-01 15:03:00,
2013-06-01 10:04:00,65.2,63.1,29.71,South,178,0.0,4.0,93,0.00,,OVC009,0.35,VWS V14.01,2013-06-01 15:04:00,
2013-06-01 10:06:00,65.4,63.3,29.71,SSW,205,0.0,4.0,93,0.00,,OVC009,0.35,VWS V14.01,2013-06-01 15:06:00,
2013-06-01 10:07:00,65.4,63.3,29.71,SW,220,6.0,6.0,93,0.00,,OVC009,0.35,VWS V14.01,2013-06-01 15:07:00,
2013-06-01 10:08:00,65.4,63.3,29.71,South,180,4.0,9.0,93,0.00,,OVC009,0.35,VWS V14.01,2013-06-01 15:08:00,
2013-06-01 10:09:00,65.4,63.3,29.71,SE,132,2.0,9.0,93,0.00,,OVC009,0.35,VWS V14.01,2013-06-01 15:09:00,
2013-06-01 10:12:00,65.5,63.4,29.71,South,187,0.0,9.0,93,0.00,,OVC009,0.35,VWS V14.01,2013-06-01 15:12:00,
2013-06-01 10:13:00,65.5,63.4,29.71,SSE,153,2.0,9.0,93,0.00,,OVC009,0.35,VWS V14.01,2013-06-01 15:13:00,
2013-06-01 10:14:00,65.5,63.4,29.71,SSW,201,11.0,11.0,93,0.00,,OVC009,0.35,VWS V14.01,2013-06-01 15:14:00,
2013-06-01 10:17:00,65.4,63.0,29.70,SSW,199,0.0,17.0,92,0.00,,OVC009,0.35,VWS V14.01,2013-06-01 15:17:00,
2013-06-01 10:18:00,65.4,63.0,29.70,South,188,9.0,17.0,92,0.00,,OVC009,0.35,VWS V14.01,2013-06-01 15:18:00,
2013-06-01 10:19:00,65.4,63.0,29.70,SSE,160,0.0,17.0,92,0.00,,OVC009,0.35,VWS V14.01,2013-06-01 15:19:00,
2013-06-01 10:22:00,65.4,63.0,29.70,South,172,0.0,17.0,92,0.00,,OVC009,0.35,VWS V14.01,2013-06-01 15:22:00,
2013-06-01 10:23:00,65.5,63.1,29.70,SSE,152,0.0,17.0,92,0.00,,OVC009,0.35,VWS V14.01,2013-06-01 15:23:00,
2013-06-01 10:24:00,65.5,63.1,29.70,SSW,203,3.0,17.0,92,0.00,,OVC009,0.35,VWS V14.01,2013-06-01 15:24:00,
2013-06-01 10:27:00,65.5,63.1,29.70,South,173,2.0,17.0,92,0.00,,OVC009,0.35,VWS V14.01,2013-06-01 15:27:00,
2013-06-01 10:28:00,65.5,63.1,29.70,South,186,2.0,17.0,92,0.00,,OVC009,0.35,VWS V14.01,2013-06-01 15:28:00,
2013-06-01 10:29:00,65.4,63.0,29.70,South,189,10.0,17.0,92,0.00,,OVC009,0.35,VWS V14.01,2013-06-01 15:29:00,
2013-06-01 10:30:00,65.4,63.0,29.71,South,177,0.0,17.0,92,0.00,,OVC009,0.35,VWS V14.01,2013-06-01 15:30:00,
2013-06-01 10:32:00,65.4,62.7,29.71,SSW,192,5.0,12.0,91,0.01,,OVC009,0.36,VWS V14.01,2013-06-01 15:32:00,
2013-06-01 10:33:00,65.4,62.7,29.71,SSW,211,4.0,12.0,91,0.01,,OVC009,0.36,VWS V14.01,2013-06-01 15:33:00,
2013-06-01 10:34:00,65.4,62.7,29.71,SSW,212,5.0,12.0,91,0.01,,OVC009,0.36,VWS V14.01,2013-06-01 15:34:00,
2013-06-01 10:35:00,65.4,62.7,29.71,South,173,0.0,12.0,91,0.01,,OVC009,0.36,VWS V14.01,2013-06-01 15:35:00,
2013-06-01 10:37:00,65.4,62.7,29.71,South,179,0.0,12.0,91,0.01,,OVC009,0.36,VWS V14.01,2013-06-01 15:37:00,
2013-06-01 10:38:00,65.4,62.7,29.71,South,182,5.0,12.0,91,0.01,,OVC009,0.36,VWS V14.01,2013-06-01 15:38:00,
2013-06-01 10:39:00,65.4,62.7,29.71,SSW,208,12.0,12.0,91,0.01,,OVC009,0.36,VWS V14.01,2013-06-01 15:39:00,
2013-06-01 10:40:00,65.4,62.7,29.71,SSE,147,1.0,13.0,91,0.01,,OVC009,0.36,VWS V14.01,2013-06-01 15:40:00,
2013-06-01 10:42:00,65.4,62.7,29.71,SSW,194,0.0,13.0,91,0.01,,OVC009,0.36,VWS V14.01,2013-06-01 15:42:00,
2013-06-01 10:43:00,65.5,62.8,29.71,SSW,198,0.0,13.0,91,0.01,,OVC009,0.36,VWS V14.01,2013-06-01 15:43:00,
2013-06-01 10:44:00,65.5,62.8,29.71,SSW,209,0.0,13.0,91,0.01,,OVC009,0.36,VWS V14.01,2013-06-01 15:44:00,
2013-06-01 10:45:00,65.7,63.0,29.72,South,185,4.0,13.0,91,0.01,,OVC009,0.36,VWS V14.01,2013-06-01 15:45:00,
2013-06-01 10:47:00,65.5,62.8,29.72,South,184,1.0,14.0,91,0.01,,OVC009,0.36,VWS V14.01,2013-06-01 15:47:00,
2013-06-01 10:48:00,65.5,62.8,29.72,SSW,202,7.0,15.0,91,0.01,,OVC009,0.36,VWS V14.01,2013-06-01 15:48:00,
2013-06-01 10:49:00,65.5,62.8,29.72,SSW,193,2.0,15.0,91,0.01,,OVC009,0.36,VWS V14.01,2013-06-01 15:49:00,
2013-06-01 10:50:00,65.5,62.8,29.72,SSW,193,0.0,15.0,91,0.01,,OVC009,0.36,VWS V14.01,2013-06-01 15:50:00,
2013-06-01 10:53:00,65.5,62.8,29.72,SE,137,7.0,15.0,91,0.01,,OVC009,0.36,VWS V14.01,2013-06-01 15:53:00,
2013-06-01 10:54:00,65.5,62.8,29.72,SE,142,2.0,17.0,91,0.01,,OVC009,0.36,VWS V14.01,2013-06-01 15:54:00,
2013-06-01 10:55:00,65.5,62.8,29.72,SSW,205,6.0,17.0,91,0.01,,OVC009,0.36,VWS V14.01,2013-06-01 15:55:00,
2013-06-01 10:58:00,65.7,63.0,29.72,South,188,6.0,17.0,91,0.01,,OVC009,0.36,VWS V14.01,2013-06-01 15:58:00,
2013-06-01 11:00:00,65.7,63.0,29.73,SSW,210,0.0,17.0,91,0.01,,OVC009,0.36,VWS V14.01,2013-06-01 16:00:00,
2013-06-01 11:03:00,65.9,62.9,29.73,SW,217,4.0,11.0,90,0.01,,OVC009,0.36,VWS V14.01,2013-06-01 16:03:00,
2013-06-01 11:05:00,66.0,63.0,29.73,South,190,7.0,11.0,90,0.01,,OVC009,0.36,VWS V14.01,2013-06-01 16:05:00,
2013-06-01 11:06:00,66.0,63.0,29.73,SSW,195,0.0,11.0,90,0.01,,OVC009,0.36,VWS V14.01,2013-06-01 16:06:00,
2013-06-01 11:08:00,66.2,63.2,29.73,SSW,211,2.0,11.0,90,0.01,,OVC009,0.36,VWS V14.01,2013-06-01 16:08:00,
2013-06-01 11:10:00,66.2,62.9,29.73,SSW,197,1.0,11.0,89,0.01,,OVC009,0.36,VWS V14.01,2013-06-01 16:10:00,
2013-06-01 11:11:00,66.3,63.3,29.73,SSW,211,0.0,11.0,90,0.01,,OVC009,0.36,VWS V14.01,2013-06-01 16:11:00,
2013-06-01 11:13:00,66.3,63.0,29.73,South,178,3.0,11.0,89,0.01,,OVC009,0.36,VWS V14.01,2013-06-01 16:13:00,
2013-06-01 11:15:00,66.3,63.0,29.72,SSE,154,0.0,11.0,89,0.01,,OVC009,0.36,VWS V14.01,2013-06-01 16:15:00,
2013-06-01 11:16:00,66.3,63.0,29.72,South,186,9.0,11.0,89,0.01,,OVC009,0.36,VWS V14.01,2013-06-01 16:16:00,
2013-06-01 11:18:00,66.5,62.8,29.72,South,177,0.0,11.0,88,0.01,,OVC009,0.36,VWS V14.01,2013-06-01 16:18:00,
2013-06-01 11:19:00,66.5,62.8,29.72,South,190,0.0,11.0,88,0.01,,OVC009,0.36,VWS V14.01,2013-06-01 16:19:00,
2013-06-01 11:20:00,66.5,62.8,29.72,SSW,197,6.0,11.0,88,0.01,,OVC009,0.36,VWS V14.01,2013-06-01 16:20:00,
2013-06-01 11:21:00,66.7,63.0,29.72,South,183,2.0,11.0,88,0.01,,OVC009,0.36,VWS V14.01,2013-06-01 16:21:00,
2013-06-01 11:23:00,66.7,63.0,29.72,SSW,208,8.0,13.0,88,0.01,,OVC009,0.36,VWS V14.01,2013-06-01 16:23:00,
2013-06-01 11:24:00,66.7,63.0,29.72,SSW,192,12.0,13.0,88,0.01,,OVC009,0.36,VWS V14.01,2013-06-01 16:24:00,
2013-06-01 11:25:00,66.5,62.8,29.72,SSW,205,4.0,13.0,88,0.01,,OVC009,0.36,VWS V14.01,2013-06-01 16:25:00,
2013-06-01 11:26:00,66.7,63.0,29.72,SSW,196,3.0,13.0,88,0.01,,OVC009,0.36,VWS V14.01,2013-06-01 16:26:00,
2013-06-01 11:28:00,66.8,63.1,29.72,SSW,212,4.0,13.0,88,0.01,,OVC009,0.36,VWS V14.01,2013-06-01 16:28:00,
2013-06-01 11:29:00,66.8,62.8,29.72,SSW,194,6.0,13.0,87,0.01,,OVC009,0.36,VWS V14.01,2013-06-01 16:29:00,
2013-06-01 11:30:00,66.8,62.8,29.72,SE,136,0.0,13.0,87,0.01,,OVC009,0.36,VWS V14.01,2013-06-01 16:30:00,
2013-06-01 11:31:00,67.0,63.3,29.72,SSE,163,0.0,0.0,88,0.00,,OVC009,0.36,VWS V14.01,2013-06-01 16:31:00,
2013-06-01 11:33:00,67.2,62.9,29.72,SSW,200,3.0,12.0,86,0.00,,OVC009,0.36,VWS V14.01,2013-06-01 16:33:00,
2013-06-01 11:34:00,67.2,62.9,29.72,SSW,207,5.0,12.0,86,0.00,,OVC009,0.36,VWS V14.01,2013-06-01 16:34:00,
2013-06-01 11:35:00,67.0,63.0,29.72,SSW,201,0.0,12.0,87,0.00,,OVC009,0.36,VWS V14.01,2013-06-01 16:35:00,
2013-06-01 11:36:00,67.2,63.2,29.72,SE,134,1.0,12.0,87,0.00,,OVC009,0.36,VWS V14.01,2013-06-01 16:36:00,
2013-06-01 11:39:00,67.2,63.2,29.72,South,178,0.0,12.0,87,0.00,,OVC009,0.36,VWS V14.01,2013-06-01 16:39:00,
2013-06-01 11:40:00,67.2,63.2,29.72,South,189,5.0,12.0,87,0.00,,OVC009,0.36,VWS V14.01,2013-06-01 16:40:00,
2013-06-01 11:41:00,67.2,62.9,29.72,South,187,13.0,13.0,86,0.00,,OVC009,0.36,VWS V14.01,2013-06-01 16:41:00,
2013-06-01 11:44:00,67.0,62.7,29.72,South,183,4.0,13.0,86,0.00,,OVC009,0.36,VWS V14.01,2013-06-01 16:44:00,
2013-06-01 11:45:00,67.0,62.7,29.72,SSE,167,0.0,13.0,86,0.00,,OVC009,0.36,VWS V14.01,2013-06-01 16:45:00,
2013-06-01 11:46:00,67.0,62.7,29.72,SSW,198,3.0,13.0,86,0.00,,OVC009,0.36,VWS V14.01,2013-06-01 16:46:00,
2013-06-01 11:49:00,67.0,62.7,29.72,SSW,198,5.0,13.0,86,0.00,,OVC009,0.36,VWS V14.01,2013-06-01 16:49:00,
2013-06-01 11:50:00,67.0,62.7,29.72,South,177,0.0,13.0,86,0.00,,OVC009,0.36,VWS V14.01,2013-06-01 16:50:00,
2013-06-01 11:51:00,67.0,62.7,29.72,SSW,212,7.0,13.0,86,0.00,,OVC009,0.36,VWS V14.01,2013-06-01 16:51:00,
2013-06-01 11:52:00,67.2,62.9,29.72,SSW,194,4.0,13.0,86,0.00,,OVC009,0.36,VWS V14.01,2013-06-01 16:52:00,
2013-06-01 11:55:00,67.0,62.3,29.72,SE,140,13.0,15.0,85,0.00,,OVC009,0.36,VWS V14.01,2013-06-01 16:55:00,
2013-06-01 11:57:00,67.0,62.7,29.72,South,186,1.0,15.0,86,0.00,,OVC009,0.36,VWS V14.01,2013-06-01 16:57:00,
2013-06-01 12:00:00,67.0,62.3,29.74,SSW,208,3.0,15.0,85,0.00,,OVC009,0.36,VWS V14.01,2013-06-01 17:00:00,
2013-06-01 12:02:00,67.0,62.3,29.74,South,181,10.0,14.0,85,0.00,,OVC019,0.36,VWS V14.01,2013-06-01 17:02:00,
2013-06-01 12:05:00,67.0,62.3,29.74,South,185,1.0,14.0,85,0.00,,OVC019,0.36,VWS V14.01,2013-06-01 17:05:00,
2013-06-01 12:07:00,67.0,62.7,29.74,SW,235,6.0,14.0,86,0.00,,OVC019,0.36,VWS V14.01,2013-06-01 17:07:00,
2013-06-01 12:08:00,66.8,62.2,29.74,South,178,3.0,14.0,85,0.00,,OVC019,0.36,VWS V14.01,2013-06-01 17:08:00,
2013-06-01 12:10:00,67.0,62.7,29.74,ESE,109,5.0,14.0,86,0.00,,OVC019,0.36,VWS V14.01,2013-06-01 17:10:00,
2013-06-01 12:12:00,67.2,62.9,29.74,SE,134,4.0,14.0,86,0.00,,OVC019,0.36,VWS V14.01,2013-06-01 17:12:00,
2013-06-01 12:13:00,67.0,62.7,29.74,SSW,202,2.0,14.0,86,0.00,,OVC019,0.36,VWS V14.01,2013-06-01 17:13:00,
2013-06-01 12:15:00,67.0,62.7,29.73,South,181,3.0,14.0,86,0.00,,OVC019,0.36,VWS V14.01,2013-06-01 17:15:00,
2013-06-01 12:16:00,67.0,62.7,29.73,SSW,198,6.0,14.0,86,0.00,,OVC019,0.36,VWS V14.01,2013-06-01 17:16:00,
2013-06-01 12:17:00,66.8,62.5,29.73,SE,130,4.0,14.0,86,0.00,,OVC019,0.36,VWS V14.01,2013-06-01 17:17:00,
2013-06-01 12:18:00,66.8,62.5,29.73,South,190,5.0,14.0,86,0.00,,OVC019,0.36,VWS V14.01,2013-06-01 17:18:00,
2013-06-01 12:20:00,66.8,62.5,29.73,SSW,202,1.0,14.0,86,0.00,,OVC019,0.36,VWS V14.01,2013-06-01 17:20:00,
2013-06-01 12:21:00,66.7,62.4,29.73,SSW,196,2.0,14.0,86,0.00,,OVC019,0.36,VWS V14.01,2013-06-01 17:21:00,
2013-06-01 12:22:00,66.8,62.5,29.73,SE,127,0.0,14.0,86,0.00,,OVC019,0.36,VWS V14.01,2013-06-01 17:22:00,
2013-06-01 12:23:00,66.8,62.8,29.73,South,184,0.0,14.0,87,0.00,,OVC019,0.36,VWS V14.01,2013-06-01 17:23:00,
2013-06-01 12:25:00,66.8,62.8,29.73,SSW,196,0.0,14.0,87,0.00,,OVC019,0.36,VWS V14.01,2013-06-01 17:25:00,
2013-06-01 12:26:00,66.8,62.8,29.73,SW,224,3.0,14.0,87,0.00,,OVC019,0.36,VWS V14.01,2013-06-01 17:26:00,
2013-06-01 12:28:00,66.8,62.5,29.73,SSW,207,1.0,14.0,86,0.00,,OVC019,0.36,VWS V14.01,2013-06-01 17:28:00,
2013-06-01 12:30:00,66.8,62.5,29.73,South,173,0.0,14.0,86,0.00,,OVC019,0.36,VWS V14.01,2013-06-01 17:30:00,
2013-06-01 12:32:00,67.0,62.7,29.73,South,175,0.0,4.0,86,0.00,,OVC019,0.36,VWS V14.01,2013-06-01 17:32:00,
2013-06-01 12:33:00,67.0,62.7,29.73,SSW,194,0.0,4.0,86,0.00,,OVC019,0.36,VWS V14.01,2013-06-01 17:33:00,
2013-06-01 12:35:00,67.2,62.9,29.73,South,189,0.0,7.0,86,0.00,,OVC019,0.36,VWS V14.01,2013-06-01 17:35:00,
2013-06-01 12:36:00,67.2,62.9,29.73,South,180,0.0,7.0,86,0.00,,OVC019,0.36,VWS V14.01,2013-06-01 17:36:00,
2013-06-01 12:37:00,67.2,62.9,29.73,South,182,0.0,7.0,86,0.00,,OVC019,0.36,VWS V14.01,2013-06-01 17:37:00,
2013-06-01 12:38:00,67.3,63.0,29.73,South,187,0.0,7.0,86,0.00,,OVC019,0.36,VWS V14.01,2013-06-01 17:38:00,
2013-06-01 12:39:00,67.5,63.2,29.73,SE,130,0.0,7.0,86,0.00,,OVC019,0.36,VWS V14.01,2013-06-01 17:39:00,
2013-06-01 12:40:00,67.3,62.6,29.73,South,181,0.0,10.0,85,0.00,,OVC019,0.36,VWS V14.01,2013-06-01 17:40:00,
2013-06-01 12:41:00,67.5,62.8,29.73,South,191,0.0,10.0,85,0.00,,OVC019,0.36,VWS V14.01,2013-06-01 17:41:00,
2013-06-01 12:42:00,67.5,62.8,29.73,SSW,194,0.0,10.0,85,0.00,,OVC019,0.36,VWS V14.01,2013-06-01 17:42:00,
2013-06-01 12:43:00,67.5,62.8,29.73,SSW,211,3.0,10.0,85,0.00,,OVC019,0.36,VWS V14.01,2013-06-01 17:43:00,
2013-06-01 12:44:00,67.5,62.8,29.73,SSW,198,2.0,10.0,85,0.00,,OVC019,0.36,VWS V14.01,2013-06-01 17:44:00,
2013-06-01 12:46:00,67.7,63.0,29.73,SSE,168,0.0,10.0,85,0.00,,OVC019,0.36,VWS V14.01,2013-06-01 17:46:00,
2013-06-01 12:47:00,67.7,63.0,29.73,SSW,194,0.0,10.0,85,0.00,,OVC019,0.36,VWS V14.01,2013-06-01 17:47:00,
2013-06-01 12:48:00,67.7,63.0,29.73,South,191,2.0,10.0,85,0.00,,OVC019,0.36,VWS V14.01,2013-06-01 17:48:00,
2013-06-01 12:49:00,67.7,62.7,29.73,South,177,5.0,12.0,84,0.00,,OVC019,0.36,VWS V14.01,2013-06-01 17:49:00,
2013-06-01 12:51:00,67.7,62.7,29.73,SSW,203,3.0,12.0,84,0.00,,OVC019,0.36,VWS V14.01,2013-06-01 17:51:00,
2013-06-01 12:52:00,67.7,62.7,29.73,SE,146,2.0,12.0,84,0.00,,OVC019,0.36,VWS V14.01,2013-06-01 17:52:00,
2013-06-01 12:54:00,67.8,62.8,29.73,SSE,165,2.0,12.0,84,0.00,,OVC019,0.36,VWS V14.01,2013-06-01 17:54:00,
2013-06-01 12:56:00,67.8,62.8,29.73,South,179,7.0,12.0,84,0.00,,OVC019,0.36,VWS V14.01,2013-06-01 17:56:00,
2013-06-01 12:57:00,67.8,62.8,29.73,SSW,196,2.0,12.0,84,0.00,,OVC019,0.36,VWS V14.01,2013-06-01 17:57:00,
2013-06-01 12:59:00,68.0,63.0,29.73,South,186,0.0,12.0,84,0.00,,OVC019,0.36,VWS V14.01,2013-06-01 17:59:00,
2013-06-01 13:00:00,68.0,63.0,29.73,SSW,212,7.0,12.0,84,0.00,,,0.36,VWS V14.01,2013-06-01 18:00:00,
2013-06-01 13:01:00,68.0,63.0,29.73,SSW,193,6.0,7.0,84,0.00,,OVC019,0.36,VWS V14.01,2013-06-01 18:01:00,
2013-06-01 13:02:00,68.2,63.2,29.73,SSW,196,0.0,7.0,84,0.00,,OVC013,0.36,VWS V14.01,2013-06-01 18:02:00,
2013-06-01 13:04:00,68.2,62.8,29.73,South,178,6.0,13.0,83,0.00,,OVC013,0.36,VWS V14.01,2013-06-01 18:04:00,
2013-06-01 13:05:00,68.2,62.8,29.73,SSW,200,2.0,13.0,83,0.00,,OVC013,0.36,VWS V14.01,2013-06-01 18:05:00,
2013-06-01 13:06:00,68.2,62.8,29.73,SSW,195,0.0,13.0,83,0.00,,OVC013,0.36,VWS V14.01,2013-06-01 18:06:00,
2013-06-01 13:07:00,68.3,62.9,29.73,SSW,195,0.0,13.0,83,0.00,,OVC013,0.36,VWS V14.01,2013-06-01 18:07:00,
2013-06-01 13:09:00,68.5,63.5,29.73,SW,215,0.0,13.0,84,0.00,,OVC013,0.36,VWS V14.01,2013-06-01 18:09:00,
2013-06-01 13:10:00,68.5,63.1,29.73,South,173,0.0,13.0,83,0.00,,OVC013,0.36,VWS V14.01,2013-06-01 18:10:00,
2013-06-01 13:11:00,68.5,63.1,29.73,SSE,150,0.0,13.0,83,0.00,,OVC013,0.36,VWS V14.01,2013-06-01 18:11:00,
2013-06-01 13:12:00,68.5,63.5,29.73,South,175,0.0,13.0,84,0.00,,OVC013,0.36,VWS V14.01,2013-06-01 18:12:00,
2013-06-01 13:14:00,68.7,63.3,29.73,SSE,162,6.0,13.0,83,0.00,,OVC013,0.36,VWS V14.01,2013-06-01 18:14:00,
2013-06-01 13:15:00,68.7,63.3,29.73,SSW,205,3.0,13.0,83,0.00,,OVC013,0.36,VWS V14.01,2013-06-01 18:15:00,
2013-06-01 13:16:00,68.7,63.0,29.73,SSW,192,2.0,13.0,82,0.00,,OVC013,0.36,VWS V14.01,2013-06-01 18:16:00,
2013-06-01 13:17:00,68.7,63.0,29.73,South,172,4.0,13.0,82,0.00,,OVC013,0.36,VWS V14.01,2013-06-01 18:17:00,
2013-06-01 13:18:00,68.7,63.0,29.73,SW,229,3.0,13.0,82,0.00,,OVC013,0.36,VWS V14.01,2013-06-01 18:18:00,
2013-06-01 13:19:00,68.7,63.0,29.73,SSW,211,1.0,13.0,82,0.00,,OVC013,0.36,VWS V14.01,2013-06-01 18:19:00,
2013-06-01 13:20:00,68.7,63.0,29.73,SW,214,1.0,13.0,82,0.00,,OVC013,0.36,VWS V14.01,2013-06-01 18:20:00,
2013-06-01 13:22:00,68.7,63.0,29.73,SSW,200,0.0,13.0,82,0.00,,OVC013,0.36,VWS V14.01,2013-06-01 18:22:00,
2013-06-01 13:23:00,68.7,63.3,29.73,South,174,0.0,13.0,83,0.00,,OVC013,0.36,VWS V14.01,2013-06-01 18:23:00,
2013-06-01 13:25:00,68.8,63.4,29.73,South,190,0.0,13.0,83,0.00,,OVC013,0.36,VWS V14.01,2013-06-01 18:25:00,
2013-06-01 13:27:00,69.0,63.3,29.73,SW,233,6.0,13.0,82,0.00,,OVC013,0.36,VWS V14.01,2013-06-01 18:27:00,
2013-06-01 13:28:00,69.0,63.3,29.73,SSW,204,0.0,13.0,82,0.00,,OVC013,0.36,VWS V14.01,2013-06-01 18:28:00,
2013-06-01 13:30:00,69.2,63.5,29.72,South,188,0.0,13.0,82,0.00,,OVC013,0.36,VWS V14.01,2013-06-01 18:30:00,
2013-06-01 13:31:00,69.2,63.5,29.72,SSW,208,0.0,7.0,82,0.00,,OVC013,0.36,VWS V14.01,2013-06-01 18:31:00,
2013-06-01 13:32:00,69.3,63.2,29.72,SW,217,3.0,11.0,81,0.00,,OVC013,0.36,VWS V14.01,2013-06-01 18:32:00,
2013-06-01 13:33:00,69.2,63.1,29.72,South,183,1.0,16.0,81,0.00,,OVC013,0.36,VWS V14.01,2013-06-01 18:33:00,
2013-06-01 13:35:00,69.3,63.2,29.72,SSW,206,2.0,16.0,81,0.00,,OVC013,0.36,VWS V14.01,2013-06-01 18:35:00,
2013-06-01 13:36:00,69.5,63.4,29.72,South,187,4.0,16.0,81,0.00,,OVC013,0.36,VWS V14.01,2013-06-01 18:36:00,
2013-06-01 13:37:00,69.5,63.4,29.72,South,182,7.0,16.0,81,0.00,,OVC013,0.36,VWS V14.01,2013-06-01 18:37:00,
2013-06-01 13:38:00,69.5,63.4,29.72,SSW,197,3.0,16.0,81,0.00,,OVC013,0.36,VWS V14.01,2013-06-01 18:38:00,
2013-06-01 13:40:00,69.5,63.1,29.72,SW,217,2.0,16.0,80,0.00,,OVC013,0.36,VWS V14.01,2013-06-01 18:40:00,
2013-06-01 13:41:00,69.5,63.1,29.72,SSW,196,3.0,18.0,80,0.00,,OVC013,0.36,VWS V14.01,2013-06-01 18:41:00,
2013-06-01 13:43:00,69.3,62.9,29.72,SSW,199,3.0,18.0,80,0.00,,OVC013,0.36,VWS V14.01,2013-06-01 18:43:00,
2013-06-01 13:44:00,69.3,63.2,29.72,SSW,211,2.0,18.0,81,0.00,,OVC013,0.36,VWS V14.01,2013-06-01 18:44:00,
2013-06-01 13:45:00,69.3,63.2,29.72,South,178,2.0,18.0,81,0.00,,OVC013,0.36,VWS V14.01,2013-06-01 18:45:00,
2013-06-01 13:47:00,69.3,63.2,29.72,SSW,194,1.0,18.0,81,0.00,,OVC013,0.36,VWS V14.01,2013-06-01 18:47:00,
2013-06-01 13:48:00,69.3,63.2,29.72,SSW,213,2.0,18.0,81,0.00,,OVC013,0.36,VWS V14.01,2013-06-01 18:48:00,
2013-06-01 13:49:00,69.3,63.2,29.72,SSW,210,0.0,18.0,81,0.00,,OVC013,0.36,VWS V14.01,2013-06-01 18:49:00,
2013-06-01 13:51:00,69.5,63.4,29.72,SSW,211,3.0,18.0,81,0.00,,OVC013,0.36,VWS V14.01,2013-06-01 18:51:00,
2013-06-01 13:53:00,69.5,63.4,29.72,SSW,193,3.0,18.0,81,0.00,,OVC013,0.36,VWS V14.01,2013-06-01 18:53:00,
2013-06-01 13:54:00,69.7,63.6,29.72,SSW,192,2.0,18.0,81,0.00,,OVC013,0.36,VWS V14.01,2013-06-01 18:54:00,
2013-06-01 13:56:00,69.8,63.7,29.72,South,178,4.0,18.0,81,0.00,,OVC013,0.36,VWS V14.01,2013-06-01 18:56:00,
2013-06-01 13:58:00,70.0,63.5,29.72,SSW,209,6.0,18.0,80,0.00,,OVC013,0.36,VWS V14.01,2013-06-01 18:58:00,
2013-06-01 13:59:00,70.0,63.5,29.72,SSW,204,4.0,18.0,80,0.00,,OVC013,0.36,VWS V14.01,2013-06-01 18:59:00,
2013-06-01 14:00:00,70.0,63.5,29.72,SSW,201,8.0,18.0,80,0.00,,,0.36,VWS V14.01,2013-06-01 19:00:00,
2013-06-01 14:02:00,70.2,63.4,29.72,SSW,194,1.0,5.0,79,0.00,,BKN020,0.36,VWS V14.01,2013-06-01 19:02:00,
2013-06-01 14:03:00,70.2,63.4,29.72,SSW,193,1.0,11.0,79,0.00,,BKN020,0.36,VWS V14.01,2013-06-01 19:03:00,
2013-06-01 14:04:00,70.2,63.4,29.72,SW,214,0.0,11.0,79,0.00,,BKN020,0.36,VWS V14.01,2013-06-01 19:04:00,
2013-06-01 14:05:00,70.2,63.8,29.72,SSW,205,0.0,11.0,80,0.00,,BKN020,0.36,VWS V14.01,2013-06-01 19:05:00,
2013-06-01 14:07:00,70.3,63.8,29.72,South,183,5.0,11.0,80,0.00,,BKN020,0.36,VWS V14.01,2013-06-01 19:07:00,
2013-06-01 14:08:00,70.3,63.5,29.72,SSW,202,1.0,18.0,79,0.00,,BKN020,0.36,VWS V14.01,2013-06-01 19:08:00,
2013-06-01 14:09:00,70.3,63.5,29.72,South,184,2.0,18.0,79,0.00,,BKN020,0.36,VWS V14.01,2013-06-01 19:09:00,
2013-06-01 14:10:00,70.5,63.7,29.72,SSW,200,2.0,18.0,79,0.00,,BKN020,0.36,VWS V14.01,2013-06-01 19:10:00,
2013-06-01 14:12:00,70.3,62.8,29.72,SSW,202,1.0,18.0,77,0.00,,BKN020,0.36,VWS V14.01,2013-06-01 19:12:00,
2013-06-01 14:13:00,70.3,63.1,29.72,SSW,200,12.0,18.0,78,0.00,,BKN020,0.36,VWS V14.01,2013-06-01 19:13:00,
2013-06-01 14:14:00,70.3,63.1,29.72,SSW,208,2.0,18.0,78,0.00,,BKN020,0.36,VWS V14.01,2013-06-01 19:14:00,
2013-06-01 14:15:00,70.3,62.8,29.72,SSW,204,1.0,18.0,77,0.00,,BKN020,0.36,VWS V14.01,2013-06-01 19:15:00,
2013-06-01 14:17:00,70.5,63.3,29.72,South,190,0.0,18.0,78,0.00,,BKN020,0.36,VWS V14.01,2013-06-01 19:17:00,
2013-06-01 14:18:00,70.5,63.7,29.72,SSE,156,2.0,18.0,79,0.00,,BKN020,0.36,VWS V14.01,2013-06-01 19:18:00,
2013-06-01 14:19:00,70.5,63.7,29.72,South,174,11.0,18.0,79,0.00,,BKN020,0.36,VWS V14.01,2013-06-01 19:19:00,
2013-06-01 14:20:00,70.7,63.9,29.72,South,188,2.0,18.0,79,0.00,,BKN020,0.36,VWS V14.01,2013-06-01 19:20:00,
2013-06-01 14:23:00,70.7,63.5,29.72,SSW,198,1.0,18.0,78,0.00,,BKN020,0.36,VWS V14.01,2013-06-01 19:23:00,
2013-06-01 14:24:00,70.7,63.5,29.72,SSW,205,2.0,18.0,78,0.00,,BKN020,0.36,VWS V14.01,2013-06-01 19:24:00,
2013-06-01 14:25:00,70.7,63.5,29.72,SSE,162,0.0,18.0,78,0.00,,BKN020,0.36,VWS V14.01,2013-06-01 19:25:00,
2013-06-01 14:28:00,70.8,63.6,29.72,South,190,2.0,18.0,78,0.00,,BKN020,0.36,VWS V14.01,2013-06-01 19:28:00,
2013-06-01 14:29:00,70.8,63.6,29.72,South,180,0.0,18.0,78,0.00,,BKN020,0.36,VWS V14.01,2013-06-01 19:29:00,
2013-06-01 14:30:00,70.8,63.6,29.71,SSW,209,0.0,18.0,78,0.00,,BKN020,0.36,VWS V14.01,2013-06-01 19:30:00,
2013-06-01 14:33:00,71.0,63.8,29.71,SSW,192,4.0,13.0,78,0.00,,BKN020,0.36,VWS V14.01,2013-06-01 19:33:00,
2013-06-01 14:34:00,71.0,63.8,29.71,South,184,5.0,13.0,78,0.00,,BKN020,0.36,VWS V14.01,2013-06-01 19:34:00,
2013-06-01 14:35:00,70.8,63.2,29.71,SSE,154,0.0,13.0,77,0.00,,BKN020,0.36,VWS V14.01,2013-06-01 19:35:00,
2013-06-01 14:38:00,70.5,63.0,29.71,SSW,205,3.0,15.0,77,0.00,,BKN020,0.36,VWS V14.01,2013-06-01 19:38:00,
2013-06-01 14:39:00,70.3,62.8,29.71,SSW,200,0.0,15.0,77,0.00,,BKN020,0.36,VWS V14.01,2013-06-01 19:39:00,
2013-06-01 14:40:00,70.5,63.3,29.71,SSW,200,0.0,15.0,78,0.00,,BKN020,0.36,VWS V14.01,2013-06-01 19:40:00,
2013-06-01 14:44:00,70.5,63.3,29.71,South,182,1.0,15.0,78,0.00,,BKN020,0.36,VWS V14.01,2013-06-01 19:44:00,
2013-06-01 14:45:00,70.5,63.7,29.70,SSW,203,0.0,15.0,79,0.00,,BKN020,0.36,VWS V14.01,2013-06-01 19:45:00,
2013-06-01 14:49:00,70.7,63.9,29.70,SW,234,0.0,15.0,79,0.00,,BKN020,0.36,VWS V14.01,2013-06-01 19:49:00,
2013-06-01 14:50:00,70.7,63.9,29.70,SSW,197,0.0,15.0,79,0.00,,BKN020,0.36,VWS V14.01,2013-06-01 19:50:00,
2013-06-01 14:51:00,70.7,63.5,29.70,SSW,196,5.0,15.0,78,0.00,,BKN020,0.36,VWS V14.01,2013-06-01 19:51:00,
2013-06-01 14:54:00,71.0,63.8,29.70,SSW,205,0.0,15.0,78,0.00,,BKN020,0.36,VWS V14.01,2013-06-01 19:54:00,
2013-06-01 14:55:00,71.2,64.0,29.70,South,186,0.0,15.0,78,0.00,,BKN020,0.36,VWS V14.01,2013-06-01 19:55:00,
2013-06-01 14:56:00,71.2,64.0,29.70,South,175,6.0,15.0,78,0.00,,BKN020,0.36,VWS V14.01,2013-06-01 19:56:00,
2013-06-01 14:59:00,71.2,63.6,29.70,SSW,212,0.0,15.0,77,0.00,,BKN020,0.36,VWS V14.01,2013-06-01 19:59:00,
2013-06-01 15:00:00,71.2,63.6,29.70,SW,225,2.0,15.0,77,0.00,,BKN020,0.36,VWS V14.01,2013-06-01 20:00:00,
2013-06-01 15:01:00,71.2,63.6,29.70,SSW,202,5.0,12.0,77,0.00,,SCT044,0.36,VWS V14.01,2013-06-01 20:01:00,
2013-06-01 15:04:00,71.4,63.8,29.70,South,172,3.0,12.0,77,0.00,,SCT044,0.36,VWS V14.01,2013-06-01 20:04:00,
2013-06-01 15:05:00,71.4,63.8,29.70,South,187,1.0,12.0,77,0.00,,SCT044,0.36,VWS V14.01,2013-06-01 20:05:00,
2013-06-01 15:06:00,71.4,63.8,29.70,South,180,0.0,12.0,77,0.00,,SCT044,0.36,VWS V14.01,2013-06-01 20:06:00,
2013-06-01 15:07:00,71.4,63.8,29.70,SSW,193,10.0,12.0,77,0.00,,SCT044,0.36,VWS V14.01,2013-06-01 20:07:00,
2013-06-01 15:10:00,71.2,63.6,29.70,SSE,167,0.0,12.0,77,0.00,,SCT044,0.36,VWS V14.01,2013-06-01 20:10:00,
2013-06-01 15:11:00,71.0,63.4,29.70,SSW,207,4.0,12.0,77,0.00,,SCT044,0.36,VWS V14.01,2013-06-01 20:11:00,
2013-06-01 15:12:00,71.0,63.4,29.70,SW,221,3.0,16.0,77,0.00,,SCT044,0.36,VWS V14.01,2013-06-01 20:12:00,
2013-06-01 15:15:00,70.7,63.5,29.71,South,187,2.0,16.0,78,0.00,,SCT044,0.36,VWS V14.01,2013-06-01 20:15:00,
2013-06-01 15:16:00,70.5,63.3,29.71,SSW,201,0.0,16.0,78,0.00,,SCT044,0.36,VWS V14.01,2013-06-01 20:16:00,
2013-06-01 15:17:00,70.3,63.1,29.71,South,183,6.0,16.0,78,0.00,,SCT044,0.36,VWS V14.01,2013-06-01 20:17:00,
2013-06-01 15:20:00,70.2,63.4,29.71,South,175,0.0,16.0,79,0.00,,SCT044,0.36,VWS V14.01,2013-06-01 20:20:00,
2013-06-01 15:21:00,70.2,63.8,29.71,South,177,2.0,16.0,80,0.00,,SCT044,0.36,VWS V14.01,2013-06-01 20:21:00,
2013-06-01 15:22:00,70.2,63.8,29.71,SW,225,9.0,16.0,80,0.00,,SCT044,0.36,VWS V14.01,2013-06-01 20:22:00,
2013-06-01 15:25:00,70.0,63.5,29.71,SW,217,4.0,16.0,80,0.00,,SCT044,0.36,VWS V14.01,2013-06-01 20:25:00,
2013-06-01 15:26:00,70.0,63.5,29.71,South,190,0.0,16.0,80,0.00,,SCT044,0.36,VWS V14.01,2013-06-01 20:26:00,
2013-06-01 15:27:00,70.0,63.9,29.71,ESE,113,0.0,16.0,81,0.00,,SCT044,0.36,VWS V14.01,2013-06-01 20:27:00,
2013-06-01 15:30:00,70.3,63.8,29.71,South,176,7.0,16.0,80,0.00,,SCT044,0.36,VWS V14.01,2013-06-01 20:30:00,
2013-06-01 15:31:00,70.3,63.8,29.71,SSW,201,0.0,1.0,80,0.00,,SCT044,0.36,VWS V14.01,2013-06-01 20:31:00,
2013-06-01 15:32:00,70.5,64.0,29.71,South,191,2.0,4.0,80,0.00,,SCT044,0.36,VWS V14.01,2013-06-01 20:32:00,
2013-06-01 15:35:00,70.7,64.2,29.71,SSW,199,3.0,4.0,80,0.00,,SCT044,0.36,VWS V14.01,2013-06-01 20:35:00,
2013-06-01 15:36:00,70.7,64.2,29.71,SE,136,3.0,5.0,80,0.00,,SCT044,0.36,VWS V14.01,2013-06-01 20:36:00,
2013-06-01 15:37:00,70.7,64.2,29.71,South,191,1.0,5.0,80,0.00,,SCT044,0.36,VWS V14.01,2013-06-01 20:37:00,
2013-06-01 15:38:00,70.7,64.2,29.71,SW,215,0.0,5.0,80,0.00,,SCT044,0.36,VWS V14.01,2013-06-01 20:38:00,
2013-06-01 15:40:00,70.7,64.2,29.71,SSW,202,0.0,5.0,80,0.00,,SCT044,0.36,VWS V14.01,2013-06-01 20:40:00,
2013-06-01 15:41:00,70.7,64.2,29.71,South,180,0.0,5.0,80,0.00,,SCT044,0.36,VWS V14.01,2013-06-01 20:41:00,
2013-06-01 15:42:00,70.5,64.0,29.71,South,181,0.0,5.0,80,0.00,,SCT044,0.36,VWS V14.01,2013-06-01 20:42:00,
2013-06-01 15:43:00,70.5,64.0,29.71,SSW,196,12.0,12.0,80,0.00,,SCT044,0.36,VWS V14.01,2013-06-01 20:43:00,
2013-06-01 15:45:00,70.2,63.8,29.71,SSW,192,0.0,12.0,80,0.00,,SCT044,0.36,VWS V14.01,2013-06-01 20:45:00,
2013-06-01 15:47:00,70.2,63.8,29.71,SSW,205,5.0,12.0,80,0.00,,SCT044,0.36,VWS V14.01,2013-06-01 20:47:00,
2013-06-01 15:48:00,70.0,63.9,29.71,SSW,197,0.0,12.0,81,0.00,,SCT044,0.36,VWS V14.01,2013-06-01 20:48:00,
2013-06-01 16:00:00,70.1,65.1,29.71,SSW,202,1.0,12.0,84,0.00,,,0.36,VWS V14.01,2013-06-01 21:00:00,
2013-06-01 16:30:00,70.0,63.9,29.70,SSW,202,2.0,13.0,81,0.00,,,0.36,VWS V14.01,2013-06-01 21:30:00,
2013-06-01 17:00:00,71.0,64.9,29.70,SSW,202,2.0,15.0,81,0.00,,,0.36,VWS V14.01,2013-06-01 22:00:00,
2013-06-01 17:30:00,72.0,65.1,29.68,SSW,202,1.0,14.0,79,0.00,,,0.36,VWS V14.01,2013-06-01 22:30:00,
2013-06-01 18:00:00,72.3,65.4,29.67,SSW,202,2.0,11.0,79,0.00,,,0.36,VWS V14.01,2013-06-01 23:00:00,
2013-06-01 18:30:00,71.8,66.4,29.69,South,180,1.0,9.0,83,0.11,,,0.47,VWS V14.01,2013-06-01 23:30:00,
2013-06-01 19:00:00,65.6,62.0,29.69,SSW,202,1.0,16.0,88,0.21,,,0.57,VWS V14.01,2013-06-02 00:00:00,
2013-06-01 19:30:00,65.0,62.3,29.71,South,180,0.0,5.0,91,0.21,,,0.57,VWS V14.01,2013-06-02 00:30:00,
2013-06-01 20:00:00,65.5,63.1,29.74,South,180,0.0,0.0,92,0.10,,,0.57,VWS V14.01,2013-06-02 01:00:00,
2013-06-01 20:30:00,64.5,61.5,29.75,South,180,0.0,0.0,90,0.00,,,0.57,VWS V14.01,2013-06-02 01:30:00,
2013-06-01 21:00:00,63.5,60.2,29.76,South,180,0.0,0.0,89,0.00,,,0.57,VWS V14.01,2013-06-02 02:00:00,
2013-06-01 21:30:00,62.7,59.1,29.77,South,180,0.0,0.0,88,0.00,,,0.57,VWS V14.01,2013-06-02 02:30:00,
2013-06-01 22:00:00,61.7,58.7,29.79,South,180,0.0,0.0,90,0.00,,,0.57,VWS V14.01,2013-06-02 03:00:00,
2013-06-01 22:30:00,60.9,58.6,29.79,South,180,0.0,0.0,92,0.00,,,0.57,VWS V14.01,2013-06-02 03:30:00,
2013-06-01 23:00:00,60.3,58.0,29.80,South,180,0.0,0.0,92,0.00,,,0.57,VWS V14.01,2013-06-02 04:00:00,
2013-06-01 23:30:00,59.8,57.5,29.81,South,180,0.0,0.0,92,0.00,,,0.57,VWS V14.01,2013-06-02 04:30:00,